Time,TemperatureF,DewpointF,PressureIn,WindDirection,WindDirectionDegrees,WindSpeedMPH,WindSpeedGustMPH,Humidity,HourlyPrecipIn,Conditions,Clouds,dailyrainin,SoftwareType,DateUTC
2013-08-25 00:01:00,73.4,66.1,30.24,NNE,33,0.0,0.0,78,0.00,SCT,,0.00,WeatherDisplay:10.37,2013-08-25 04:01:00,
2013-08-25 00:02:00,73.3,66.8,30.24,NNE,33,0.0,0.0,80,0.00,SCT,,0.00,WeatherDisplay:10.37,2013-08-25 04:02:00,
2013-08-25 00:06:00,73.6,67.0,30.24,NNE,33,0.0,0.0,80,0.00,SCT,,0.00,WeatherDisplay:10.37,2013-08-25 04:06:00,
2013-08-25 00:07:00,73.5,66.6,30.24,NNE,33,0.0,0.0,79,0.00,SCT,,0.00,WeatherDisplay:10.37,2013-08-25 04:07:00,
2013-08-25 00:11:00,73.4,66.5,30.24,NNE,33,0.0,0.0,79,0.00,SCT,,0.00,WeatherDisplay:10.37,2013-08-25 04:11:00,
2013-08-25 00:12:00,73.3,66.4,30.24,NNE,33,0.0,0.0,79,0.00,SCT,,0.00,WeatherDisplay:10.37,2013-08-25 04:12:00,
2013-08-25 00:16:00,73.0,66.1,30.24,NNE,33,0.0,0.0,79,0.00,SCT,,0.00,WeatherDisplay:10.37,2013-08-25 04:16:00,
2013-08-25 00:17:00,72.9,66.4,30.24,NNE,33,0.0,0.0,80,0.00,SCT,,0.00,WeatherDisplay:10.37,2013-08-25 04:17:00,
2013-08-25 00:21:00,72.9,66.0,30.25,NNE,33,0.0,0.0,79,0.00,SCT,,0.00,WeatherDisplay:10.37,2013-08-25 04:21:00,
2013-08-25 00:22:00,72.8,66.3,30.24,NNE,33,0.0,0.0,80,0.00,SCT,,0.00,WeatherDisplay:10.37,2013-08-25 04:22:00,
2013-08-25 00:23:00,72.8,66.3,30.24,NNE,33,0.0,0.0,80,0.00,SCT,,0.00,WeatherDisplay:10.37,2013-08-25 04:23:00,
2013-08-25 00:26:00,72.7,66.2,30.25,NNE,33,0.0,0.0,80,0.00,SCT,,0.00,WeatherDisplay:10.37,2013-08-25 04:26:00,
2013-08-25 00:27:00,72.7,66.2,30.25,NNE,33,0.0,0.0,80,0.00,SCT,,0.00,WeatherDisplay:10.37,2013-08-25 04:27:00,
2013-08-25 00:28:00,72.8,66.3,30.25,NNE,33,0.0,0.0,80,0.00,SCT,,0.00,WeatherDisplay:10.37,2013-08-25 04:28:00,
2013-08-25 00:32:00,72.9,66.4,30.25,NNE,33,0.0,0.0,80,0.00,SCT,,0.00,WeatherDisplay:10.37,2013-08-25 04:32:00,
2013-08-25 00:33:00,72.9,66.4,30.25,NNE,33,0.0,0.0,80,0.00,SCT,,0.00,WeatherDisplay:10.37,2013-08-25 04:33:00,
2013-08-25 00:37:00,72.8,66.3,30.25,NNE,33,0.0,0.0,80,0.00,SCT,,0.00,WeatherDisplay:10.37,2013-08-25 04:37:00,
2013-08-25 00:39:00,72.8,66.3,30.25,NNE,33,0.0,0.0,80,0.00,SCT,,0.00,WeatherDisplay:10.37,2013-08-25 04:39:00,
2013-08-25 00:42:00,72.5,66.0,30.25,NNE,33,0.0,0.0,80,0.00,SCT,,0.00,WeatherDisplay:10.37,2013-08-25 04:42:00,
2013-08-25 00:43:00,72.5,66.3,30.25,NNE,33,0.0,0.0,81,0.00,SCT,,0.00,WeatherDisplay:10.37,2013-08-25 04:43:00,
2013-08-25 00:44:00,72.5,66.3,30.25,NNE,33,0.0,0.0,81,0.00,SCT,,0.00,WeatherDisplay:10.37,2013-08-25 04:44:00,
2013-08-25 00:47:00,72.2,65.7,30.25,NNE,33,0.0,0.0,80,0.00,SCT,,0.00,WeatherDisplay:10.37,2013-08-25 04:47:00,
2013-08-25 00:48:00,72.2,66.0,30.25,NNE,33,0.0,0.0,81,0.00,SCT,,0.00,WeatherDisplay:10.37,2013-08-25 04:48:00,
2013-08-25 00:49:00,72.2,66.0,30.25,NNE,33,0.0,0.0,81,0.00,SCT,,0.00,WeatherDisplay:10.37,2013-08-25 04:49:00,
2013-08-25 00:53:00,72.2,66.0,30.25,NNE,33,0.0,0.0,81,0.00,SCT,,0.00,WeatherDisplay:10.37,2013-08-25 04:53:00,
2013-08-25 00:54:00,72.2,65.7,30.25,NNE,33,0.0,0.0,80,0.00,SCT,,0.00,WeatherDisplay:10.37,2013-08-25 04:54:00,
2013-08-25 00:58:00,72.1,65.6,30.25,NNE,33,0.0,0.0,80,0.00,SCT,,0.00,WeatherDisplay:10.37,2013-08-25 04:58:00,
2013-08-25 00:59:00,72.1,65.6,30.25,NNE,33,0.0,0.0,80,0.00,SCT,,0.00,WeatherDisplay:10.37,2013-08-25 04:59:00,
2013-08-25 01:00:00,72.1,65.6,30.25,NNE,33,0.0,0.0,80,0.00,SCT,,0.00,WeatherDisplay:10.37,2013-08-25 05:00:00,
2013-08-25 01:03:00,72.1,65.6,30.25,NNE,33,0.0,0.0,80,0.00,SCT,,0.00,WeatherDisplay:10.37,2013-08-25 05:03:00,
2013-08-25 01:04:00,72.1,65.6,30.25,NNE,33,0.0,0.0,80,0.00,SCT,,0.00,WeatherDisplay:10.37,2013-08-25 05:04:00,
2013-08-25 01:05:00,71.9,65.8,30.25,NNE,33,0.0,0.0,81,0.00,SCT,,0.00,WeatherDisplay:10.37,2013-08-25 05:05:00,
2013-08-25 01:08:00,71.6,65.5,30.25,NNE,33,0.0,0.0,81,0.00,SCT,,0.00,WeatherDisplay:10.37,2013-08-25 05:08:00,
2013-08-25 01:09:00,71.5,65.4,30.25,NNE,33,0.0,0.0,81,0.00,SCT,,0.00,WeatherDisplay:10.37,2013-08-25 05:09:00,
2013-08-25 01:10:00,71.4,65.6,30.26,NNE,33,0.0,0.0,82,0.00,SCT,,0.00,WeatherDisplay:10.37,2013-08-25 05:10:00,
2013-08-25 01:13:00,71.2,65.4,30.26,NNE,33,0.0,0.0,82,0.00,SCT,,0.00,WeatherDisplay:10.37,2013-08-25 05:13:00,
2013-08-25 01:14:00,71.2,65.4,30.26,NNE,33,0.0,0.0,82,0.00,SCT,,0.00,WeatherDisplay:10.37,2013-08-25 05:14:00,
2013-08-25 01:15:00,71.1,65.3,30.26,NNE,33,0.0,0.0,82,0.00,SCT,,0.00,WeatherDisplay:10.37,2013-08-25 05:15:00,
2013-08-25 01:19:00,71.2,65.4,30.26,NNE,33,0.0,0.0,82,0.00,SCT,,0.00,WeatherDisplay:10.37,2013-08-25 05:19:00,
2013-08-25 01:21:00,71.3,65.5,30.26,NNE,33,0.0,0.0,82,0.00,SCT,,0.00,WeatherDisplay:10.37,2013-08-25 05:21:00,
2013-08-25 01:24:00,71.4,65.6,30.25,NNE,33,0.0,0.0,82,0.00,SCT,,0.00,WeatherDisplay:10.37,2013-08-25 05:24:00,
2013-08-25 01:25:00,71.4,65.6,30.25,NNE,33,0.0,0.0,82,0.00,SCT,,0.00,WeatherDisplay:10.37,2013-08-25 05:25:00,
2013-08-25 01:26:00,71.5,65.7,30.25,NNE,33,0.0,0.0,82,0.00,SCT,,0.00,WeatherDisplay:10.37,2013-08-25 05:26:00,
2013-08-25 01:29:00,71.4,65.3,30.26,NNE,33,0.0,0.0,81,0.00,SCT,,0.00,WeatherDisplay:10.37,2013-08-25 05:29:00,
2013-08-25 01:30:00,71.4,65.3,30.26,NNE,33,0.0,0.0,81,0.00,SCT,,0.00,WeatherDisplay:10.37,2013-08-25 05:30:00,
2013-08-25 01:31:00,71.4,65.3,30.26,NNE,33,0.0,0.0,81,0.00,SCT,,0.00,WeatherDisplay:10.37,2013-08-25 05:31:00,
2013-08-25 01:35:00,71.3,65.5,30.26,NNE,33,0.0,0.0,82,0.00,SCT,,0.00,WeatherDisplay:10.37,2013-08-25 05:35:00,
2013-08-25 01:36:00,71.3,65.5,30.25,NNE,33,0.0,0.0,82,0.00,SCT,,0.00,WeatherDisplay:10.37,2013-08-25 05:36:00,
2013-08-25 01:40:00,71.3,65.2,30.26,NNE,33,0.0,0.0,81,0.00,SCT,,0.00,WeatherDisplay:10.37,2013-08-25 05:40:00,
2013-08-25 01:41:00,71.3,65.2,30.25,NNE,33,0.0,0.0,81,0.00,SCT,,0.00,WeatherDisplay:10.37,2013-08-25 05:41:00,
2013-08-25 01:42:00,71.3,65.2,30.25,NNE,33,0.0,0.0,81,0.00,SCT,,0.00,WeatherDisplay:10.37,2013-08-25 05:42:00,
2013-08-25 01:45:00,71.2,65.1,30.25,NNE,33,0.0,0.0,81,0.00,SCT,,0.00,WeatherDisplay:10.37,2013-08-25 05:45:00,
2013-08-25 01:46:00,71.1,65.0,30.25,NNE,33,0.0,0.0,81,0.00,SCT,,0.00,WeatherDisplay:10.37,2013-08-25 05:46:00,
2013-08-25 01:47:00,71.1,65.0,30.25,NNE,33,0.2,2.3,81,0.00,SCT,,0.00,WeatherDisplay:10.37,2013-08-25 05:47:00,
2013-08-25 01:50:00,71.2,65.1,30.25,NNE,28,0.3,2.3,81,0.00,SCT,,0.00,WeatherDisplay:10.37,2013-08-25 05:50:00,
2013-08-25 01:51:00,71.2,64.7,30.25,NNE,28,0.0,0.0,80,0.00,SCT,,0.00,WeatherDisplay:10.37,2013-08-25 05:51:00,
2013-08-25 01:52:00,71.2,64.7,30.25,NNE,17,0.1,1.1,80,0.00,SCT,,0.00,WeatherDisplay:10.37,2013-08-25 05:52:00,
2013-08-25 01:55:00,71.3,64.8,30.25,North,5,0.0,0.0,80,0.00,SCT,,0.00,WeatherDisplay:10.37,2013-08-25 05:55:00,
2013-08-25 01:56:00,71.4,64.9,30.25,North,5,0.0,0.0,80,0.00,SCT,,0.00,WeatherDisplay:10.37,2013-08-25 05:56:00,
2013-08-25 01:57:00,71.4,64.5,30.25,North,5,0.0,0.0,79,0.00,SCT,,0.00,WeatherDisplay:10.37,2013-08-25 05:57:00,
2013-08-25 01:58:00,71.4,64.9,30.25,North,5,0.0,0.0,80,0.00,SCT,,0.00,WeatherDisplay:10.37,2013-08-25 05:58:00,
2013-08-25 02:00:00,71.3,64.8,30.26,North,5,0.0,0.0,80,0.00,SCT,,0.00,WeatherDisplay:10.37,2013-08-25 06:00:00,
2013-08-25 02:01:00,71.3,64.8,30.26,North,5,0.0,0.0,80,0.00,SCT,,0.00,WeatherDisplay:10.37,2013-08-25 06:01:00,
2013-08-25 02:02:00,71.2,64.7,30.26,North,5,0.0,1.1,80,0.00,SCT,,0.00,WeatherDisplay:10.37,2013-08-25 06:02:00,
2013-08-25 02:03:00,71.2,64.7,30.26,North,5,0.0,0.0,80,0.00,SCT,,0.00,WeatherDisplay:10.37,2013-08-25 06:03:00,
2013-08-25 02:06:00,71.0,64.9,30.26,North,5,0.0,0.0,81,0.00,SCT,,0.00,WeatherDisplay:10.37,2013-08-25 06:06:00,
2013-08-25 02:07:00,70.9,64.8,30.26,North,5,0.0,0.0,81,0.00,SCT,,0.00,WeatherDisplay:10.37,2013-08-25 06:07:00,
2013-08-25 02:08:00,70.8,64.7,30.26,North,5,0.0,0.0,81,0.00,SCT,,0.00,WeatherDisplay:10.37,2013-08-25 06:08:00,
2013-08-25 02:11:00,70.6,64.8,30.26,North,5,0.0,0.0,82,0.00,SCT,,0.00,WeatherDisplay:10.37,2013-08-25 06:11:00,
2013-08-25 02:12:00,70.6,64.8,30.26,North,5,0.0,0.0,82,0.00,SCT,,0.00,WeatherDisplay:10.37,2013-08-25 06:12:00,
2013-08-25 02:13:00,70.6,64.8,30.26,North,5,0.0,0.0,82,0.00,SCT,,0.00,WeatherDisplay:10.37,2013-08-25 06:13:00,
2013-08-25 02:16:00,70.5,64.7,30.26,North,5,0.0,0.0,82,0.00,SCT,,0.00,WeatherDisplay:10.37,2013-08-25 06:16:00,
2013-08-25 02:17:00,70.6,65.2,30.26,North,5,0.0,0.0,83,0.00,SCT,,0.00,WeatherDisplay:10.37,2013-08-25 06:17:00,
2013-08-25 02:18:00,70.6,64.8,30.26,North,5,0.0,0.0,82,0.00,SCT,,0.00,WeatherDisplay:10.37,2013-08-25 06:18:00,
2013-08-25 02:19:00,70.6,64.8,30.26,North,5,0.0,0.0,82,0.00,SCT,,0.00,WeatherDisplay:10.37,2013-08-25 06:19:00,
2013-08-25 02:21:00,70.7,64.9,30.26,North,5,0.0,0.0,82,0.00,SCT,,0.00,WeatherDisplay:10.37,2013-08-25 06:21:00,
2013-08-25 02:22:00,70.7,64.9,30.26,North,5,0.0,0.0,82,0.00,SCT,,0.00,WeatherDisplay:10.37,2013-08-25 06:22:00,
2013-08-25 02:23:00,70.8,65.0,30.26,North,5,0.0,0.0,82,0.00,SCT,,0.00,WeatherDisplay:10.37,2013-08-25 06:23:00,
2013-08-25 02:24:00,70.7,64.9,30.26,North,5,0.0,0.0,82,0.00,SCT,,0.00,WeatherDisplay:10.37,2013-08-25 06:24:00,
2013-08-25 02:26:00,70.6,64.8,30.26,North,5,0.0,0.0,82,0.00,SCT,,0.00,WeatherDisplay:10.37,2013-08-25 06:26:00,
2013-08-25 02:27:00,70.6,64.8,30.26,North,5,0.0,0.0,82,0.00,SCT,,0.00,WeatherDisplay:10.37,2013-08-25 06:27:00,
2013-08-25 02:28:00,70.6,64.8,30.26,North,5,0.0,0.0,82,0.00,SCT,,0.00,WeatherDisplay:10.37,2013-08-25 06:28:00,
2013-08-25 02:29:00,70.6,64.8,30.26,North,5,0.0,0.0,82,0.00,SCT,,0.00,WeatherDisplay:10.37,2013-08-25 06:29:00,
2013-08-25 02:31:00,70.5,64.7,30.26,North,5,0.0,0.0,82,0.00,SCT,,0.00,WeatherDisplay:10.37,2013-08-25 06:31:00,
2013-08-25 02:32:00,70.5,64.7,30.26,North,5,0.0,0.0,82,0.00,SCT,,0.00,WeatherDisplay:10.37,2013-08-25 06:32:00,
2013-08-25 02:33:00,70.5,64.7,30.26,North,5,0.0,0.0,82,0.00,SCT,,0.00,WeatherDisplay:10.37,2013-08-25 06:33:00,
2013-08-25 02:34:00,70.5,64.7,30.27,North,5,0.0,0.0,82,0.00,SCT,,0.00,WeatherDisplay:10.37,2013-08-25 06:34:00,
2013-08-25 02:36:00,70.3,64.5,30.27,North,5,0.0,0.0,82,0.00,SCT,,0.00,WeatherDisplay:10.37,2013-08-25 06:36:00,
2013-08-25 02:37:00,70.3,64.9,30.27,North,5,0.0,0.0,83,0.00,SCT,,0.00,WeatherDisplay:10.37,2013-08-25 06:37:00,
2013-08-25 02:38:00,70.2,64.4,30.27,North,5,0.0,0.0,82,0.00,SCT,,0.00,WeatherDisplay:10.37,2013-08-25 06:38:00,
2013-08-25 02:39:00,70.2,64.8,30.27,North,5,0.0,0.0,83,0.00,SCT,,0.00,WeatherDisplay:10.37,2013-08-25 06:39:00,
2013-08-25 02:40:00,70.2,64.8,30.27,North,5,0.0,0.0,83,0.00,SCT,,0.00,WeatherDisplay:10.37,2013-08-25 06:40:00,
2013-08-25 02:42:00,70.2,64.8,30.27,North,5,0.0,0.0,83,0.00,SCT,,0.00,WeatherDisplay:10.37,2013-08-25 06:42:00,
2013-08-25 02:43:00,70.2,64.8,30.27,North,5,0.0,0.0,83,0.00,SCT,,0.00,WeatherDisplay:10.37,2013-08-25 06:43:00,
2013-08-25 02:44:00,70.3,64.9,30.27,North,5,0.0,0.0,83,0.00,SCT,,0.00,WeatherDisplay:10.37,2013-08-25 06:44:00,
2013-08-25 02:45:00,70.2,64.8,30.27,North,5,0.0,0.0,83,0.00,SCT,,0.00,WeatherDisplay:10.37,2013-08-25 06:45:00,
2013-08-25 02:47:00,70.2,64.4,30.27,North,5,0.0,0.0,82,0.00,SCT,,0.00,WeatherDisplay:10.37,2013-08-25 06:47:00,
2013-08-25 02:48:00,70.2,64.8,30.27,North,5,0.0,0.0,83,0.00,SCT,,0.00,WeatherDisplay:10.37,2013-08-25 06:48:00,
2013-08-25 02:50:00,70.1,64.3,30.27,North,5,0.0,0.0,82,0.00,SCT,,0.00,WeatherDisplay:10.37,2013-08-25 06:50:00,
2013-08-25 02:52:00,70.1,64.7,30.27,North,5,0.0,0.0,83,0.00,SCT,,0.00,WeatherDisplay:10.37,2013-08-25 06:52:00,
2013-08-25 02:53:00,70.0,64.6,30.27,North,5,0.0,0.0,83,0.00,SCT,,0.00,WeatherDisplay:10.37,2013-08-25 06:53:00,
2013-08-25 02:55:00,69.8,64.4,30.27,North,5,0.0,0.0,83,0.00,SCT,,0.00,WeatherDisplay:10.37,2013-08-25 06:55:00,
2013-08-25 02:56:00,69.7,64.3,30.27,North,5,0.0,0.0,83,0.00,SCT,,0.00,WeatherDisplay:10.37,2013-08-25 06:56:00,
2013-08-25 02:57:00,69.6,64.2,30.27,North,5,0.0,1.1,83,0.00,SCT,,0.00,WeatherDisplay:10.37,2013-08-25 06:57:00,
2013-08-25 02:58:00,69.5,64.1,30.27,North,5,0.0,0.0,83,0.00,SCT,,0.00,WeatherDisplay:10.37,2013-08-25 06:58:00,
2013-08-25 03:00:00,69.2,64.2,30.26,North,5,0.0,0.0,84,0.00,SCT,,0.00,WeatherDisplay:10.37,2013-08-25 07:00:00,
2013-08-25 03:01:00,69.2,64.2,30.27,North,5,0.0,0.0,84,0.00,SCT,,0.00,WeatherDisplay:10.37,2013-08-25 07:01:00,
2013-08-25 03:02:00,69.2,64.2,30.26,North,5,0.0,0.0,84,0.00,SCT,,0.00,WeatherDisplay:10.37,2013-08-25 07:02:00,
2013-08-25 03:03:00,69.2,64.2,30.26,North,5,0.0,0.0,84,0.00,SCT,,0.00,WeatherDisplay:10.37,2013-08-25 07:03:00,
2013-08-25 03:05:00,69.3,64.3,30.26,North,5,0.0,0.0,84,0.00,SCT,,0.00,WeatherDisplay:10.37,2013-08-25 07:05:00,
2013-08-25 03:06:00,69.3,64.3,30.26,North,5,0.0,0.0,84,0.00,SCT,,0.00,WeatherDisplay:10.37,2013-08-25 07:06:00,
2013-08-25 03:07:00,69.3,64.3,30.27,North,5,0.0,0.0,84,0.00,SCT,,0.00,WeatherDisplay:10.37,2013-08-25 07:07:00,
2013-08-25 03:08:00,69.3,63.9,30.27,North,5,0.0,0.0,83,0.00,SCT,,0.00,WeatherDisplay:10.37,2013-08-25 07:08:00,
2013-08-25 03:09:00,69.3,63.9,30.27,North,5,0.0,0.0,83,0.00,SCT,,0.00,WeatherDisplay:10.37,2013-08-25 07:09:00,
2013-08-25 03:11:00,69.2,64.2,30.27,North,5,0.0,0.0,84,0.00,SCT,,0.00,WeatherDisplay:10.37,2013-08-25 07:11:00,
2013-08-25 03:12:00,69.2,64.2,30.27,North,5,0.0,0.0,84,0.00,SCT,,0.00,WeatherDisplay:10.37,2013-08-25 07:12:00,
2013-08-25 03:13:00,69.0,64.0,30.27,North,5,0.0,0.0,84,0.00,SCT,,0.00,WeatherDisplay:10.37,2013-08-25 07:13:00,
2013-08-25 03:14:00,68.9,63.9,30.27,North,5,0.0,0.0,84,0.00,SCT,,0.00,WeatherDisplay:10.37,2013-08-25 07:14:00,
2013-08-25 03:17:00,68.9,63.9,30.27,North,5,0.0,0.0,84,0.00,SCT,,0.00,WeatherDisplay:10.37,2013-08-25 07:17:00,
2013-08-25 03:19:00,68.9,64.2,30.27,North,5,0.0,0.0,85,0.00,SCT,,0.00,WeatherDisplay:10.37,2013-08-25 07:19:00,
2013-08-25 03:22:00,68.9,63.9,30.27,North,5,0.0,0.0,84,0.00,SCT,,0.00,WeatherDisplay:10.37,2013-08-25 07:22:00,
2013-08-25 03:23:00,68.9,63.9,30.26,North,5,0.0,0.0,84,0.00,SCT,,0.00,WeatherDisplay:10.37,2013-08-25 07:23:00,
2013-08-25 03:24:00,68.8,63.8,30.27,North,5,0.0,0.0,84,0.00,SCT,,0.00,WeatherDisplay:10.37,2013-08-25 07:24:00,
2013-08-25 03:27:00,68.8,63.8,30.27,North,5,0.0,0.0,84,0.00,SCT,,0.00,WeatherDisplay:10.37,2013-08-25 07:27:00,
2013-08-25 03:28:00,68.8,63.8,30.27,North,5,0.0,0.0,84,0.00,SCT,,0.00,WeatherDisplay:10.37,2013-08-25 07:28:00,
2013-08-25 03:29:00,68.8,63.8,30.27,North,5,0.0,0.0,84,0.00,SCT,,0.00,WeatherDisplay:10.37,2013-08-25 07:29:00,
2013-08-25 03:30:00,68.8,63.8,30.27,North,5,0.0,0.0,84,0.00,SCT,,0.00,WeatherDisplay:10.37,2013-08-25 07:30:00,
2013-08-25 03:32:00,68.8,63.8,30.27,North,5,0.0,0.0,84,0.00,SCT,,0.00,WeatherDisplay:10.37,2013-08-25 07:32:00,
2013-08-25 03:33:00,68.8,63.8,30.27,North,5,0.0,0.0,84,0.00,SCT,,0.00,WeatherDisplay:10.37,2013-08-25 07:33:00,
2013-08-25 03:34:00,68.8,63.8,30.27,North,5,0.0,0.0,84,0.00,SCT,,0.00,WeatherDisplay:10.37,2013-08-25 07:34:00,
2013-08-25 03:35:00,68.8,63.4,30.27,North,5,0.0,0.0,83,0.00,SCT,,0.00,WeatherDisplay:10.37,2013-08-25 07:35:00,
2013-08-25 03:38:00,68.8,63.4,30.27,North,5,0.0,0.0,83,0.00,SCT,,0.00,WeatherDisplay:10.37,2013-08-25 07:38:00,
2013-08-25 03:39:00,68.8,63.4,30.27,North,5,0.0,0.0,83,0.00,SCT,,0.00,WeatherDisplay:10.37,2013-08-25 07:39:00,
2013-08-25 03:40:00,68.7,63.3,30.27,North,5,0.0,0.0,83,0.00,SCT,,0.00,WeatherDisplay:10.37,2013-08-25 07:40:00,
2013-08-25 03:43:00,68.5,63.5,30.27,North,5,0.0,0.0,84,0.00,SCT,,0.00,WeatherDisplay:10.37,2013-08-25 07:43:00,
2013-08-25 03:44:00,68.4,63.4,30.27,North,5,0.0,0.0,84,0.00,SCT,,0.00,WeatherDisplay:10.37,2013-08-25 07:44:00,
2013-08-25 03:45:00,68.3,63.3,30.27,North,5,0.0,0.0,84,0.00,SCT,,0.00,WeatherDisplay:10.37,2013-08-25 07:45:00,
2013-08-25 03:48:00,68.3,63.3,30.27,North,5,0.0,0.0,84,0.00,SCT,,0.00,WeatherDisplay:10.37,2013-08-25 07:48:00,
2013-08-25 03:49:00,68.3,63.3,30.27,North,5,0.0,0.0,84,0.00,SCT,,0.00,WeatherDisplay:10.37,2013-08-25 07:49:00,
2013-08-25 03:51:00,68.2,63.2,30.27,North,5,0.0,0.0,84,0.00,SCT,,0.00,WeatherDisplay:10.37,2013-08-25 07:51:00,
2013-08-25 03:53:00,68.1,63.1,30.27,North,5,0.0,0.0,84,0.00,SCT,,0.00,WeatherDisplay:10.37,2013-08-25 07:53:00,
2013-08-25 03:54:00,68.1,63.1,30.27,North,5,0.0,0.0,84,0.00,SCT,,0.00,WeatherDisplay:10.37,2013-08-25 07:54:00,
2013-08-25 03:56:00,68.0,63.0,30.27,North,5,0.0,0.0,84,0.00,SCT,,0.00,WeatherDisplay:10.37,2013-08-25 07:56:00,
2013-08-25 03:58:00,68.0,63.3,30.27,North,5,0.0,0.0,85,0.00,SCT,,0.00,WeatherDisplay:10.37,2013-08-25 07:58:00,
2013-08-25 03:59:00,68.0,63.0,30.27,North,5,0.0,0.0,84,0.00,SCT,,0.00,WeatherDisplay:10.37,2013-08-25 07:59:00,
2013-08-25 04:01:00,68.0,63.0,30.27,North,5,0.0,0.0,84,0.00,SCT,,0.00,WeatherDisplay:10.37,2013-08-25 08:01:00,
2013-08-25 04:03:00,67.9,62.9,30.27,North,5,0.0,0.0,84,0.00,SCT,,0.00,WeatherDisplay:10.37,2013-08-25 08:03:00,
2013-08-25 04:04:00,67.9,62.9,30.27,North,5,0.0,0.0,84,0.00,SCT,,0.00,WeatherDisplay:10.37,2013-08-25 08:04:00,
2013-08-25 04:05:00,67.9,62.9,30.27,North,5,0.0,0.0,84,0.00,SCT,,0.00,WeatherDisplay:10.37,2013-08-25 08:05:00,
2013-08-25 04:07:00,67.9,62.9,30.27,North,5,0.0,0.0,84,0.00,SCT,,0.00,WeatherDisplay:10.37,2013-08-25 08:07:00,
2013-08-25 04:08:00,67.9,62.9,30.27,North,5,0.0,0.0,84,0.00,SCT,,0.00,WeatherDisplay:10.37,2013-08-25 08:08:00,
2013-08-25 04:09:00,67.9,62.9,30.27,North,5,0.0,0.0,84,0.00,SCT,,0.00,WeatherDisplay:10.37,2013-08-25 08:09:00,
2013-08-25 04:11:00,67.8,62.8,30.27,North,5,0.0,0.0,84,0.00,SCT,,0.00,WeatherDisplay:10.37,2013-08-25 08:11:00,
2013-08-25 04:12:00,67.8,62.8,30.27,North,5,0.0,0.0,84,0.00,SCT,,0.00,WeatherDisplay:10.37,2013-08-25 08:12:00,
2013-08-25 04:13:00,67.7,62.7,30.27,North,5,0.0,0.0,84,0.00,SCT,,0.00,WeatherDisplay:10.37,2013-08-25 08:13:00,
2013-08-25 04:14:00,67.7,62.7,30.27,North,5,0.0,0.0,84,0.00,SCT,,0.00,WeatherDisplay:10.37,2013-08-25 08:14:00,
2013-08-25 04:17:00,68.3,63.3,30.27,North,5,0.0,0.0,84,0.00,SCT,,0.00,WeatherDisplay:10.37,2013-08-25 08:17:00,
2013-08-25 04:18:00,68.3,63.6,30.27,North,5,0.0,0.0,85,0.00,SCT,,0.00,WeatherDisplay:10.37,2013-08-25 08:18:00,
2013-08-25 04:19:00,68.4,63.4,30.27,North,5,0.0,0.0,84,0.00,SCT,,0.00,WeatherDisplay:10.37,2013-08-25 08:19:00,
2013-08-25 04:22:00,68.3,63.3,30.28,North,5,0.0,0.0,84,0.00,SCT,,0.00,WeatherDisplay:10.37,2013-08-25 08:22:00,
2013-08-25 04:23:00,68.3,63.3,30.27,North,5,0.0,0.0,84,0.00,SCT,,0.00,WeatherDisplay:10.37,2013-08-25 08:23:00,
2013-08-25 04:24:00,68.3,63.3,30.28,North,5,0.0,0.0,84,0.00,SCT,,0.00,WeatherDisplay:10.37,2013-08-25 08:24:00,
2013-08-25 04:25:00,68.2,63.2,30.28,North,5,0.0,0.0,84,0.00,SCT,,0.00,WeatherDisplay:10.37,2013-08-25 08:25:00,
2013-08-25 04:27:00,68.2,63.2,30.28,North,5,0.0,0.0,84,0.00,SCT,,0.00,WeatherDisplay:10.37,2013-08-25 08:27:00,
2013-08-25 04:28:00,68.2,63.2,30.28,North,5,0.0,0.0,84,0.00,SCT,,0.00,WeatherDisplay:10.37,2013-08-25 08:28:00,
2013-08-25 04:29:00,68.2,63.2,30.28,North,5,0.0,0.0,84,0.00,SCT,,0.00,WeatherDisplay:10.37,2013-08-25 08:29:00,
2013-08-25 04:30:00,68.2,63.2,30.28,North,5,0.0,0.0,84,0.00,SCT,,0.00,WeatherDisplay:10.37,2013-08-25 08:30:00,
2013-08-25 04:32:00,68.1,63.1,30.28,North,5,0.0,0.0,84,0.00,SCT,,0.00,WeatherDisplay:10.37,2013-08-25 08:32:00,
2013-08-25 04:33:00,68.1,63.1,30.28,North,5,0.0,0.0,84,0.00,SCT,,0.00,WeatherDisplay:10.37,2013-08-25 08:33:00,
2013-08-25 04:34:00,68.0,63.0,30.28,North,5,0.0,0.0,84,0.00,SCT,,0.00,WeatherDisplay:10.37,2013-08-25 08:34:00,
2013-08-25 04:35:00,68.0,63.0,30.28,North,5,0.0,0.0,84,0.00,SCT,,0.00,WeatherDisplay:10.37,2013-08-25 08:35:00,
2013-08-25 04:37:00,67.8,63.1,30.28,North,5,0.0,0.0,85,0.00,SCT,,0.00,WeatherDisplay:10.37,2013-08-25 08:37:00,
2013-08-25 04:38:00,67.8,63.1,30.28,North,5,0.0,0.0,85,0.00,SCT,,0.00,WeatherDisplay:10.37,2013-08-25 08:38:00,
2013-08-25 04:39:00,67.9,63.2,30.28,North,5,0.0,0.0,85,0.00,SCT,,0.00,WeatherDisplay:10.37,2013-08-25 08:39:00,
2013-08-25 04:40:00,67.9,63.2,30.28,North,5,0.0,0.0,85,0.00,SCT,,0.00,WeatherDisplay:10.37,2013-08-25 08:40:00,
2013-08-25 04:42:00,67.9,62.9,30.28,North,5,0.0,0.0,84,0.00,SCT,,0.00,WeatherDisplay:10.37,2013-08-25 08:42:00,
2013-08-25 04:43:00,67.9,62.9,30.28,North,5,0.0,0.0,84,0.00,SCT,,0.00,WeatherDisplay:10.37,2013-08-25 08:43:00,
2013-08-25 04:45:00,67.9,62.9,30.28,North,5,0.0,0.0,84,0.00,SCT,,0.00,WeatherDisplay:10.37,2013-08-25 08:45:00,
2013-08-25 04:46:00,67.9,62.9,30.28,North,5,0.0,0.0,84,0.00,SCT,,0.00,WeatherDisplay:10.37,2013-08-25 08:46:00,
2013-08-25 04:47:00,67.8,62.8,30.28,North,5,0.0,0.0,84,0.00,SCT,,0.00,WeatherDisplay:10.37,2013-08-25 08:47:00,
2013-08-25 04:48:00,67.8,62.8,30.28,North,5,0.0,0.0,84,0.00,SCT,,0.00,WeatherDisplay:10.37,2013-08-25 08:48:00,
2013-08-25 04:50:00,67.7,62.7,30.28,North,5,0.0,0.0,84,0.00,SCT,,0.00,WeatherDisplay:10.37,2013-08-25 08:50:00,
2013-08-25 04:51:00,67.6,62.9,30.28,North,5,0.0,0.0,85,0.00,SCT,,0.00,WeatherDisplay:10.37,2013-08-25 08:51:00,
2013-08-25 04:52:00,67.4,62.7,30.29,North,5,0.0,0.0,85,0.00,SCT,,0.00,WeatherDisplay:10.37,2013-08-25 08:52:00,
2013-08-25 04:53:00,67.4,62.7,30.28,North,5,0.0,0.0,85,0.00,SCT,,0.00,WeatherDisplay:10.37,2013-08-25 08:53:00,
2013-08-25 04:55:00,67.4,62.7,30.28,North,5,0.0,0.0,85,0.00,SCT,,0.00,WeatherDisplay:10.37,2013-08-25 08:55:00,
2013-08-25 04:56:00,67.4,62.7,30.28,North,5,0.0,0.0,85,0.00,SCT,,0.00,WeatherDisplay:10.37,2013-08-25 08:56:00,
2013-08-25 04:57:00,67.3,62.6,30.28,North,5,0.0,0.0,85,0.00,SCT,,0.00,WeatherDisplay:10.37,2013-08-25 08:57:00,
2013-08-25 04:58:00,67.4,62.7,30.28,North,5,0.0,0.0,85,0.00,SCT,,0.00,WeatherDisplay:10.37,2013-08-25 08:58:00,
2013-08-25 05:00:00,67.3,62.6,30.29,North,5,0.0,0.0,85,0.00,SCT,,0.00,WeatherDisplay:10.37,2013-08-25 09:00:00,
2013-08-25 05:01:00,67.3,63.0,30.29,North,5,0.0,0.0,86,0.00,FEW,,0.00,WeatherDisplay:10.37,2013-08-25 09:01:00,
2013-08-25 05:02:00,67.3,62.6,30.29,North,5,0.0,0.0,85,0.00,FEW,,0.00,WeatherDisplay:10.37,2013-08-25 09:02:00,
2013-08-25 05:03:00,67.3,62.6,30.29,North,5,0.0,0.0,85,0.00,FEW,,0.00,WeatherDisplay:10.37,2013-08-25 09:03:00,
2013-08-25 05:06:00,67.3,63.0,30.29,North,5,0.0,0.0,86,0.00,FEW,,0.00,WeatherDisplay:10.37,2013-08-25 09:06:00,
2013-08-25 05:07:00,67.3,63.0,30.29,North,5,0.0,0.0,86,0.00,FEW,,0.00,WeatherDisplay:10.37,2013-08-25 09:07:00,
2013-08-25 05:08:00,67.3,63.0,30.29,North,5,0.0,0.0,86,0.00,FEW,,0.00,WeatherDisplay:10.37,2013-08-25 09:08:00,
2013-08-25 05:11:00,67.2,62.5,30.29,North,5,0.0,0.0,85,0.00,FEW,,0.00,WeatherDisplay:10.37,2013-08-25 09:11:00,
2013-08-25 05:12:00,67.2,62.5,30.29,North,5,0.0,0.0,85,0.00,FEW,,0.00,WeatherDisplay:10.37,2013-08-25 09:12:00,
2013-08-25 05:13:00,67.2,62.5,30.29,North,5,0.0,0.0,85,0.00,FEW,,0.00,WeatherDisplay:10.37,2013-08-25 09:13:00,
2013-08-25 05:16:00,67.3,62.6,30.29,North,5,0.0,0.0,85,0.00,FEW,,0.00,WeatherDisplay:10.37,2013-08-25 09:16:00,
2013-08-25 05:17:00,67.3,62.6,30.29,North,5,0.0,0.0,85,0.00,FEW,,0.00,WeatherDisplay:10.37,2013-08-25 09:17:00,
2013-08-25 05:18:00,67.3,62.6,30.29,North,5,0.0,0.0,85,0.00,FEW,,0.00,WeatherDisplay:10.37,2013-08-25 09:18:00,
2013-08-25 05:19:00,67.3,62.6,30.29,North,5,0.0,0.0,85,0.00,FEW,,0.00,WeatherDisplay:10.37,2013-08-25 09:19:00,
2013-08-25 05:21:00,67.1,62.4,30.29,North,5,0.0,0.0,85,0.00,FEW,,0.00,WeatherDisplay:10.37,2013-08-25 09:21:00,
2013-08-25 05:22:00,67.1,62.4,30.29,North,5,0.0,0.0,85,0.00,FEW,,0.00,WeatherDisplay:10.37,2013-08-25 09:22:00,
2013-08-25 05:24:00,66.9,62.2,30.29,North,5,0.0,0.0,85,0.00,FEW,,0.00,WeatherDisplay:10.37,2013-08-25 09:24:00,
2013-08-25 05:26:00,66.8,62.5,30.29,North,5,0.0,0.0,86,0.00,FEW,,0.00,WeatherDisplay:10.37,2013-08-25 09:26:00,
2013-08-25 05:27:00,66.9,62.6,30.29,North,5,0.0,0.0,86,0.00,FEW,,0.00,WeatherDisplay:10.37,2013-08-25 09:27:00,
2013-08-25 05:29:00,66.9,62.6,30.29,North,5,0.0,0.0,86,0.00,FEW,,0.00,WeatherDisplay:10.37,2013-08-25 09:29:00,
2013-08-25 05:32:00,67.0,62.7,30.29,North,5,0.0,0.0,86,0.00,FEW,,0.00,WeatherDisplay:10.37,2013-08-25 09:32:00,
2013-08-25 05:34:00,67.0,62.7,30.29,North,5,0.0,0.0,86,0.00,FEW,,0.00,WeatherDisplay:10.37,2013-08-25 09:34:00,
2013-08-25 05:35:00,67.0,62.7,30.29,North,5,0.0,0.0,86,0.00,FEW,,0.00,WeatherDisplay:10.37,2013-08-25 09:35:00,
2013-08-25 05:37:00,67.0,62.7,30.29,North,5,0.0,0.0,86,0.00,FEW,,0.00,WeatherDisplay:10.37,2013-08-25 09:37:00,
2013-08-25 05:38:00,67.0,62.7,30.29,North,5,0.0,0.0,86,0.00,FEW,,0.00,WeatherDisplay:10.37,2013-08-25 09:38:00,
2013-08-25 05:39:00,66.9,62.2,30.29,North,5,0.0,0.0,85,0.00,FEW,,0.00,WeatherDisplay:10.37,2013-08-25 09:39:00,
2013-08-25 05:40:00,66.9,62.2,30.30,North,5,0.0,0.0,85,0.00,FEW,,0.00,WeatherDisplay:10.37,2013-08-25 09:40:00,
2013-08-25 05:42:00,67.0,62.7,30.30,North,5,0.0,0.0,86,0.00,FEW,,0.00,WeatherDisplay:10.37,2013-08-25 09:42:00,
2013-08-25 05:43:00,67.0,62.3,30.30,North,5,0.0,0.0,85,0.00,FEW,,0.00,WeatherDisplay:10.37,2013-08-25 09:43:00,
2013-08-25 05:44:00,67.0,62.3,30.30,North,5,0.0,0.0,85,0.00,FEW,,0.00,WeatherDisplay:10.37,2013-08-25 09:44:00,
2013-08-25 05:45:00,67.0,62.3,30.30,North,5,0.0,0.0,85,0.00,FEW,,0.00,WeatherDisplay:10.37,2013-08-25 09:45:00,
2013-08-25 05:47:00,67.0,62.3,30.30,North,5,0.0,0.0,85,0.00,FEW,,0.00,WeatherDisplay:10.37,2013-08-25 09:47:00,
2013-08-25 05:48:00,67.0,62.3,30.30,North,5,0.0,0.0,85,0.00,FEW,,0.00,WeatherDisplay:10.37,2013-08-25 09:48:00,
2013-08-25 05:49:00,67.0,62.3,30.30,North,5,0.0,0.0,85,0.00,FEW,,0.00,WeatherDisplay:10.37,2013-08-25 09:49:00,
2013-08-25 05:50:00,66.9,62.2,30.30,North,5,0.0,0.0,85,0.00,FEW,,0.00,WeatherDisplay:10.37,2013-08-25 09:50:00,
2013-08-25 05:53:00,66.8,62.1,30.30,North,5,0.0,0.0,85,0.00,FEW,,0.00,WeatherDisplay:10.37,2013-08-25 09:53:00,
2013-08-25 05:54:00,66.8,62.1,30.30,North,5,0.0,0.0,85,0.00,FEW,,0.00,WeatherDisplay:10.37,2013-08-25 09:54:00,
2013-08-25 05:55:00,66.8,62.1,30.30,North,5,0.0,0.0,85,0.00,FEW,,0.00,WeatherDisplay:10.37,2013-08-25 09:55:00,
2013-08-25 05:58:00,66.7,62.0,30.30,North,5,0.0,0.0,85,0.00,FEW,,0.00,WeatherDisplay:10.37,2013-08-25 09:58:00,
2013-08-25 05:59:00,66.6,62.3,30.30,North,5,0.0,0.0,86,0.00,FEW,,0.00,WeatherDisplay:10.37,2013-08-25 09:59:00,
2013-08-25 06:01:00,66.6,62.3,30.30,North,5,0.0,0.0,86,0.00,FEW,,0.00,WeatherDisplay:10.37,2013-08-25 10:01:00,
2013-08-25 06:03:00,66.6,62.3,30.30,North,5,0.0,0.0,86,0.00,FEW,,0.00,WeatherDisplay:10.37,2013-08-25 10:03:00,
2013-08-25 06:04:00,66.6,62.3,30.30,North,5,0.0,0.0,86,0.00,FEW,,0.00,WeatherDisplay:10.37,2013-08-25 10:04:00,
2013-08-25 06:06:00,66.6,62.3,30.30,North,5,0.0,0.0,86,0.00,FEW,,0.00,WeatherDisplay:10.37,2013-08-25 10:06:00,
2013-08-25 06:08:00,66.5,62.2,30.30,North,5,0.0,0.0,86,0.00,FEW,,0.00,WeatherDisplay:10.37,2013-08-25 10:08:00,
2013-08-25 06:09:00,66.5,62.2,30.30,North,5,0.0,0.0,86,0.00,FEW,,0.00,WeatherDisplay:10.37,2013-08-25 10:09:00,
2013-08-25 06:12:00,66.4,62.1,30.30,North,5,0.0,0.0,86,0.00,FEW,,0.00,WeatherDisplay:10.37,2013-08-25 10:12:00,
2013-08-25 06:13:00,66.4,62.1,30.30,North,5,0.0,0.0,86,0.00,FEW,,0.00,WeatherDisplay:10.37,2013-08-25 10:13:00,
2013-08-25 06:14:00,66.4,62.1,30.30,North,5,0.0,0.0,86,0.00,FEW,,0.00,WeatherDisplay:10.37,2013-08-25 10:14:00,
2013-08-25 06:15:00,66.5,62.2,30.30,North,5,0.0,0.0,86,0.00,FEW,,0.00,WeatherDisplay:10.37,2013-08-25 10:15:00,
2013-08-25 06:17:00,66.4,62.1,30.30,North,5,0.0,0.0,86,0.00,FEW,,0.00,WeatherDisplay:10.37,2013-08-25 10:17:00,
2013-08-25 06:19:00,66.3,62.0,30.30,North,5,0.0,0.0,86,0.00,FEW,,0.00,WeatherDisplay:10.37,2013-08-25 10:19:00,
2013-08-25 06:20:00,66.3,62.0,30.30,North,5,0.0,0.0,86,0.00,FEW,,0.00,WeatherDisplay:10.37,2013-08-25 10:20:00,
2013-08-25 06:23:00,66.2,61.9,30.30,North,5,0.0,0.0,86,0.00,FEW,,0.00,WeatherDisplay:10.37,2013-08-25 10:23:00,
2013-08-25 06:24:00,66.2,61.9,30.30,North,5,0.0,0.0,86,0.00,FEW,,0.00,WeatherDisplay:10.37,2013-08-25 10:24:00,
2013-08-25 06:25:00,66.3,62.0,30.31,North,5,0.0,0.0,86,0.00,FEW,,0.00,WeatherDisplay:10.37,2013-08-25 10:25:00,
2013-08-25 06:28:00,66.2,61.9,30.30,North,5,0.0,0.0,86,0.00,FEW,,0.00,WeatherDisplay:10.37,2013-08-25 10:28:00,
2013-08-25 06:29:00,66.2,61.9,30.31,North,5,0.0,0.0,86,0.00,FEW,,0.00,WeatherDisplay:10.37,2013-08-25 10:29:00,
2013-08-25 06:30:00,66.2,61.9,30.31,North,5,0.0,0.0,86,0.00,FEW,,0.00,WeatherDisplay:10.37,2013-08-25 10:30:00,
2013-08-25 06:33:00,66.1,61.8,30.31,North,5,0.0,0.0,86,0.00,FEW,,0.00,WeatherDisplay:10.37,2013-08-25 10:33:00,
2013-08-25 06:34:00,66.1,61.8,30.31,North,5,0.0,0.0,86,0.00,FEW,,0.00,WeatherDisplay:10.37,2013-08-25 10:34:00,
2013-08-25 06:35:00,66.0,62.0,30.31,North,5,0.0,0.0,87,0.00,FEW,,0.00,WeatherDisplay:10.37,2013-08-25 10:35:00,
2013-08-25 06:36:00,66.0,62.0,30.31,North,5,0.0,0.0,87,0.00,FEW,,0.00,WeatherDisplay:10.37,2013-08-25 10:36:00,
2013-08-25 06:38:00,65.9,61.9,30.31,North,5,0.0,0.0,87,0.00,FEW,,0.00,WeatherDisplay:10.37,2013-08-25 10:38:00,
2013-08-25 06:39:00,65.9,61.9,30.31,North,5,0.0,0.0,87,0.00,FEW,,0.00,WeatherDisplay:10.37,2013-08-25 10:39:00,
2013-08-25 06:40:00,65.8,61.8,30.31,North,5,0.0,0.0,87,0.00,FEW,,0.00,WeatherDisplay:10.37,2013-08-25 10:40:00,
2013-08-25 06:41:00,65.8,61.8,30.31,North,5,0.0,0.0,87,0.00,FEW,,0.00,WeatherDisplay:10.37,2013-08-25 10:41:00,
2013-08-25 06:43:00,65.8,61.8,30.32,North,5,0.0,0.0,87,0.00,FEW,,0.00,WeatherDisplay:10.37,2013-08-25 10:43:00,
2013-08-25 06:45:00,65.8,61.8,30.32,North,5,0.0,0.0,87,0.00,FEW,,0.00,WeatherDisplay:10.37,2013-08-25 10:45:00,
2013-08-25 06:46:00,65.8,61.8,30.32,North,5,0.0,0.0,87,0.00,FEW,,0.00,WeatherDisplay:10.37,2013-08-25 10:46:00,
2013-08-25 06:48:00,65.7,61.7,30.32,North,5,0.0,0.0,87,0.00,FEW,,0.00,WeatherDisplay:10.37,2013-08-25 10:48:00,
2013-08-25 06:50:00,65.7,61.7,30.32,North,5,0.0,0.0,87,0.00,FEW,,0.00,WeatherDisplay:10.37,2013-08-25 10:50:00,
2013-08-25 06:51:00,65.7,61.7,30.32,North,5,0.0,0.0,87,0.00,FEW,,0.00,WeatherDisplay:10.37,2013-08-25 10:51:00,
2013-08-25 06:53:00,65.7,61.7,30.32,North,5,0.0,0.0,87,0.00,FEW,,0.00,WeatherDisplay:10.37,2013-08-25 10:53:00,
2013-08-25 06:55:00,65.7,61.7,30.32,North,5,0.0,0.0,87,0.00,FEW,,0.00,WeatherDisplay:10.37,2013-08-25 10:55:00,
2013-08-25 06:56:00,65.6,61.6,30.32,North,5,0.0,0.0,87,0.00,FEW,,0.00,WeatherDisplay:10.37,2013-08-25 10:56:00,
2013-08-25 06:57:00,65.6,61.6,30.32,North,5,0.0,0.0,87,0.00,FEW,,0.00,WeatherDisplay:10.37,2013-08-25 10:57:00,
2013-08-25 06:59:00,65.6,61.6,30.33,North,5,0.0,0.0,87,0.00,FEW,,0.00,WeatherDisplay:10.37,2013-08-25 10:59:00,
2013-08-25 07:00:00,65.6,61.6,30.33,North,5,0.0,0.0,87,0.00,FEW,,0.00,WeatherDisplay:10.37,2013-08-25 11:00:00,
2013-08-25 07:01:00,65.5,61.5,30.32,North,5,0.0,0.0,87,0.00,FEW,,0.00,WeatherDisplay:10.37,2013-08-25 11:01:00,
2013-08-25 07:02:00,65.5,61.5,30.33,North,5,0.0,0.0,87,0.00,FEW,,0.00,WeatherDisplay:10.37,2013-08-25 11:02:00,
2013-08-25 07:04:00,65.5,61.5,30.33,North,5,0.0,0.0,87,0.00,FEW,,0.00,WeatherDisplay:10.37,2013-08-25 11:04:00,
2013-08-25 07:05:00,65.5,61.5,30.33,North,5,0.0,0.0,87,0.00,FEW,,0.00,WeatherDisplay:10.37,2013-08-25 11:05:00,
2013-08-25 07:07:00,65.5,61.5,30.33,North,5,0.0,0.0,87,0.00,FEW,,0.00,WeatherDisplay:10.37,2013-08-25 11:07:00,
2013-08-25 07:09:00,65.5,61.2,30.33,North,5,0.0,0.0,86,0.00,FEW,,0.00,WeatherDisplay:10.37,2013-08-25 11:09:00,
2013-08-25 07:11:00,65.4,61.4,30.33,North,5,0.0,0.0,87,0.00,FEW,,0.00,WeatherDisplay:10.37,2013-08-25 11:11:00,
2013-08-25 07:12:00,65.4,61.1,30.33,North,5,0.0,0.0,86,0.00,FEW,,0.00,WeatherDisplay:10.37,2013-08-25 11:12:00,
2013-08-25 07:14:00,65.4,61.4,30.33,North,5,0.0,0.0,87,0.00,FEW,,0.00,WeatherDisplay:10.37,2013-08-25 11:14:00,
2013-08-25 07:16:00,65.4,61.4,30.33,North,5,0.0,0.0,87,0.00,FEW,,0.00,WeatherDisplay:10.37,2013-08-25 11:16:00,
2013-08-25 07:17:00,65.4,61.4,30.33,North,5,0.0,0.0,87,0.00,FEW,,0.00,WeatherDisplay:10.37,2013-08-25 11:17:00,
2013-08-25 07:18:00,65.3,61.3,30.33,North,5,0.0,0.0,87,0.00,FEW,,0.00,WeatherDisplay:10.37,2013-08-25 11:18:00,
2013-08-25 07:19:00,65.3,61.3,30.33,North,5,0.0,0.0,87,0.00,FEW,,0.00,WeatherDisplay:10.37,2013-08-25 11:19:00,
2013-08-25 07:21:00,65.4,61.4,30.33,North,5,0.0,0.0,87,0.00,FEW,,0.00,WeatherDisplay:10.37,2013-08-25 11:21:00,
2013-08-25 07:22:00,65.4,61.4,30.34,North,5,0.0,0.0,87,0.00,FEW,,0.00,WeatherDisplay:10.37,2013-08-25 11:22:00,
2013-08-25 07:23:00,65.4,61.4,30.34,North,5,0.0,0.0,87,0.00,FEW,,0.00,WeatherDisplay:10.37,2013-08-25 11:23:00,
2013-08-25 07:25:00,65.4,61.4,30.34,North,5,0.0,0.0,87,0.00,FEW,,0.00,WeatherDisplay:10.37,2013-08-25 11:25:00,
2013-08-25 07:26:00,65.3,61.3,30.34,North,5,0.0,0.0,87,0.00,FEW,,0.00,WeatherDisplay:10.37,2013-08-25 11:26:00,
2013-08-25 07:27:00,65.4,61.4,30.34,North,5,0.0,0.0,87,0.00,FEW,,0.00,WeatherDisplay:10.37,2013-08-25 11:27:00,
2013-08-25 07:28:00,65.4,61.4,30.34,North,5,0.0,0.0,87,0.00,FEW,,0.00,WeatherDisplay:10.37,2013-08-25 11:28:00,
2013-08-25 07:30:00,65.4,61.4,30.34,North,5,0.0,0.0,87,0.00,FEW,,0.00,WeatherDisplay:10.37,2013-08-25 11:30:00,
2013-08-25 07:32:00,65.5,61.5,30.34,North,5,0.0,0.0,87,0.00,FEW,,0.00,WeatherDisplay:10.37,2013-08-25 11:32:00,
2013-08-25 07:33:00,65.5,61.5,30.34,North,5,0.0,0.0,87,0.00,FEW,,0.00,WeatherDisplay:10.37,2013-08-25 11:33:00,
2013-08-25 07:35:00,65.5,61.5,30.34,North,5,0.0,0.0,87,0.00,FEW,,0.00,WeatherDisplay:10.37,2013-08-25 11:35:00,
2013-08-25 07:37:00,65.6,61.3,30.34,North,5,0.0,0.0,86,0.00,FEW,,0.00,WeatherDisplay:10.37,2013-08-25 11:37:00,
2013-08-25 07:39:00,65.6,61.3,30.34,North,5,0.0,0.0,86,0.00,FEW,,0.00,WeatherDisplay:10.37,2013-08-25 11:39:00,
2013-08-25 07:40:00,65.6,61.6,30.34,North,5,0.0,0.0,87,0.00,FEW,,0.00,WeatherDisplay:10.37,2013-08-25 11:40:00,
2013-08-25 07:42:00,65.7,61.7,30.34,North,5,0.0,0.0,87,0.00,FEW,,0.00,WeatherDisplay:10.37,2013-08-25 11:42:00,
2013-08-25 07:43:00,65.7,61.7,30.34,North,5,0.0,0.0,87,0.00,FEW,,0.00,WeatherDisplay:10.37,2013-08-25 11:43:00,
2013-08-25 07:44:00,65.7,61.7,30.34,North,5,0.0,0.0,87,0.00,FEW,,0.00,WeatherDisplay:10.37,2013-08-25 11:44:00,
2013-08-25 07:45:00,65.7,61.7,30.34,North,5,0.0,0.0,87,0.00,FEW,,0.00,WeatherDisplay:10.37,2013-08-25 11:45:00,
2013-08-25 07:48:00,65.7,61.7,30.34,North,5,0.0,0.0,87,0.00,FEW,,0.00,WeatherDisplay:10.37,2013-08-25 11:48:00,
2013-08-25 07:49:00,65.8,61.8,30.35,North,10,0.0,0.0,87,0.00,FEW,,0.00,WeatherDisplay:10.37,2013-08-25 11:49:00,
2013-08-25 07:52:00,65.8,61.8,30.34,West,276,0.0,0.0,87,0.00,FEW,,0.00,WeatherDisplay:10.37,2013-08-25 11:52:00,
2013-08-25 07:53:00,65.8,61.8,30.35,West,276,0.0,0.0,87,0.00,FEW,,0.00,WeatherDisplay:10.37,2013-08-25 11:53:00,
2013-08-25 07:54:00,65.9,61.9,30.34,West,277,0.0,0.0,87,0.00,FEW,,0.00,WeatherDisplay:10.37,2013-08-25 11:54:00,
2013-08-25 07:57:00,66.0,62.0,30.35,West,277,0.0,0.0,87,0.00,FEW,,0.00,WeatherDisplay:10.37,2013-08-25 11:57:00,
2013-08-25 07:58:00,66.0,62.0,30.35,West,276,0.0,0.0,87,0.00,FEW,,0.00,WeatherDisplay:10.37,2013-08-25 11:58:00,
2013-08-25 07:59:00,66.0,62.0,30.35,West,277,0.0,0.0,87,0.00,FEW,,0.00,WeatherDisplay:10.37,2013-08-25 11:59:00,
2013-08-25 08:02:00,66.1,62.1,30.35,West,276,0.0,0.0,87,0.00,FEW,,0.00,WeatherDisplay:10.37,2013-08-25 12:02:00,
2013-08-25 08:03:00,66.1,62.1,30.35,West,277,0.0,0.0,87,0.00,FEW,,0.00,WeatherDisplay:10.37,2013-08-25 12:03:00,
2013-08-25 08:04:00,66.2,62.2,30.35,West,276,0.0,0.0,87,0.00,FEW,,0.00,WeatherDisplay:10.37,2013-08-25 12:04:00,
2013-08-25 08:05:00,66.2,62.2,30.35,West,276,0.0,0.0,87,0.00,FEW,,0.00,WeatherDisplay:10.37,2013-08-25 12:05:00,
2013-08-25 08:07:00,66.2,62.2,30.35,West,277,0.0,0.0,87,0.00,FEW,,0.00,WeatherDisplay:10.37,2013-08-25 12:07:00,
2013-08-25 08:08:00,66.2,62.2,30.35,West,277,0.0,0.0,87,0.00,FEW,,0.00,WeatherDisplay:10.37,2013-08-25 12:08:00,
2013-08-25 08:09:00,66.3,62.3,30.35,West,276,0.0,0.0,87,0.00,FEW,,0.00,WeatherDisplay:10.37,2013-08-25 12:09:00,
2013-08-25 08:10:00,66.3,62.3,30.35,West,277,0.0,0.0,87,0.00,FEW,,0.00,WeatherDisplay:10.37,2013-08-25 12:10:00,
2013-08-25 08:12:00,66.3,62.3,30.35,West,277,0.0,0.0,87,0.00,FEW,,0.00,WeatherDisplay:10.37,2013-08-25 12:12:00,
2013-08-25 08:13:00,66.3,62.6,30.35,West,277,0.0,0.0,88,0.00,FEW,,0.00,WeatherDisplay:10.37,2013-08-25 12:13:00,
2013-08-25 08:14:00,66.3,62.3,30.35,West,277,0.0,0.0,87,0.00,FEW,,0.00,WeatherDisplay:10.37,2013-08-25 12:14:00,
2013-08-25 08:15:00,66.3,62.6,30.35,West,277,0.0,0.0,88,0.00,FEW,,0.00,WeatherDisplay:10.37,2013-08-25 12:15:00,
2013-08-25 08:17:00,66.4,62.7,30.35,West,277,0.0,0.0,88,0.00,FEW,,0.00,WeatherDisplay:10.37,2013-08-25 12:17:00,
2013-08-25 08:19:00,66.5,62.8,30.35,West,277,0.0,0.0,88,0.00,FEW,,0.00,WeatherDisplay:10.37,2013-08-25 12:19:00,
2013-08-25 08:20:00,66.5,62.8,30.35,West,277,0.0,0.0,88,0.00,FEW,,0.00,WeatherDisplay:10.37,2013-08-25 12:20:00,
2013-08-25 08:22:00,66.6,63.3,30.35,West,277,0.0,0.0,89,0.00,FEW,,0.00,WeatherDisplay:10.37,2013-08-25 12:22:00,
2013-08-25 08:24:00,66.6,62.6,30.36,West,277,0.0,0.0,87,0.00,FEW,,0.00,WeatherDisplay:10.37,2013-08-25 12:24:00,
2013-08-25 08:25:00,66.7,62.7,30.36,West,277,0.0,0.0,87,0.00,FEW,,0.00,WeatherDisplay:10.37,2013-08-25 12:25:00,
2013-08-25 08:27:00,66.8,62.8,30.36,West,277,0.0,0.0,87,0.00,FEW,,0.00,WeatherDisplay:10.37,2013-08-25 12:27:00,
2013-08-25 08:29:00,66.9,62.9,30.36,West,277,0.0,0.0,87,0.00,FEW,,0.00,WeatherDisplay:10.37,2013-08-25 12:29:00,
2013-08-25 08:30:00,66.9,62.9,30.36,West,277,0.0,0.0,87,0.00,FEW,,0.00,WeatherDisplay:10.37,2013-08-25 12:30:00,
2013-08-25 08:31:00,66.9,62.6,30.36,West,277,0.0,0.0,86,0.00,FEW,,0.00,WeatherDisplay:10.37,2013-08-25 12:31:00,
2013-08-25 08:32:00,67.0,62.3,30.36,West,277,0.0,0.0,85,0.00,FEW,,0.00,WeatherDisplay:10.37,2013-08-25 12:32:00,
2013-08-25 08:34:00,67.1,62.4,30.36,West,277,0.0,0.0,85,0.00,FEW,,0.00,WeatherDisplay:10.37,2013-08-25 12:34:00,
2013-08-25 08:36:00,67.3,62.6,30.36,West,277,0.0,0.0,85,0.00,FEW,,0.00,WeatherDisplay:10.37,2013-08-25 12:36:00,
2013-08-25 08:37:00,67.5,62.8,30.36,West,277,0.0,0.0,85,0.00,FEW,,0.00,WeatherDisplay:10.37,2013-08-25 12:37:00,
2013-08-25 08:39:00,67.6,63.3,30.36,West,277,0.0,0.0,86,0.00,FEW,,0.00,WeatherDisplay:10.37,2013-08-25 12:39:00,
2013-08-25 08:41:00,67.7,63.4,30.36,West,277,0.0,0.0,86,0.00,FEW,,0.00,WeatherDisplay:10.37,2013-08-25 12:41:00,
2013-08-25 08:43:00,67.8,63.1,30.36,West,277,0.0,0.0,85,0.00,FEW,,0.00,WeatherDisplay:10.37,2013-08-25 12:43:00,
2013-08-25 08:44:00,67.9,62.9,30.36,West,277,0.0,0.0,84,0.00,FEW,,0.00,WeatherDisplay:10.37,2013-08-25 12:44:00,
2013-08-25 08:46:00,68.0,63.0,30.36,West,277,0.0,0.0,84,0.00,FEW,,0.00,WeatherDisplay:10.37,2013-08-25 12:46:00,
2013-08-25 08:47:00,68.0,63.0,30.36,West,277,0.0,0.0,84,0.00,FEW,,0.00,WeatherDisplay:10.37,2013-08-25 12:47:00,
2013-08-25 08:48:00,68.1,63.1,30.36,West,277,0.0,0.0,84,0.00,FEW,,0.00,WeatherDisplay:10.37,2013-08-25 12:48:00,
2013-08-25 08:49:00,68.2,63.2,30.36,West,277,0.0,0.0,84,0.00,FEW,,0.00,WeatherDisplay:10.37,2013-08-25 12:49:00,
2013-08-25 08:51:00,68.3,62.9,30.36,NE,51,0.0,0.0,83,0.00,FEW,,0.00,WeatherDisplay:10.37,2013-08-25 12:51:00,
2013-08-25 08:52:00,68.3,62.9,30.36,NE,51,0.0,0.0,83,0.00,FEW,,0.00,WeatherDisplay:10.37,2013-08-25 12:52:00,
2013-08-25 08:53:00,68.3,62.9,30.36,NE,51,0.0,0.0,83,0.00,FEW,,0.00,WeatherDisplay:10.37,2013-08-25 12:53:00,
2013-08-25 08:54:00,68.4,63.0,30.36,NE,51,0.0,0.0,83,0.00,FEW,,0.00,WeatherDisplay:10.37,2013-08-25 12:54:00,
2013-08-25 08:57:00,68.4,62.7,30.36,NE,51,0.0,0.0,82,0.00,FEW,,0.00,WeatherDisplay:10.37,2013-08-25 12:57:00,
2013-08-25 08:58:00,68.4,62.3,30.36,NE,51,0.0,0.0,81,0.00,FEW,,0.00,WeatherDisplay:10.37,2013-08-25 12:58:00,
2013-08-25 09:00:00,68.5,62.4,30.36,NE,51,0.0,0.0,81,0.00,FEW,,0.00,WeatherDisplay:10.37,2013-08-25 13:00:00,
2013-08-25 09:02:00,68.7,63.0,30.36,NE,51,0.0,0.0,82,0.00,CLR,,0.00,WeatherDisplay:10.37,2013-08-25 13:02:00,
2013-08-25 09:03:00,68.8,63.1,30.37,NE,51,0.0,0.0,82,0.00,CLR,,0.00,WeatherDisplay:10.37,2013-08-25 13:03:00,
2013-08-25 09:05:00,68.9,63.2,30.36,NE,51,0.0,0.0,82,0.00,CLR,,0.00,WeatherDisplay:10.37,2013-08-25 13:05:00,
2013-08-25 09:07:00,69.0,62.6,30.36,NE,51,0.0,0.0,80,0.00,CLR,,0.00,WeatherDisplay:10.37,2013-08-25 13:07:00,
2013-08-25 09:08:00,69.0,62.6,30.36,NE,51,0.0,0.0,80,0.00,CLR,,0.00,WeatherDisplay:10.37,2013-08-25 13:08:00,
2013-08-25 09:10:00,69.0,62.9,30.36,NE,51,0.0,0.0,81,0.00,CLR,,0.00,WeatherDisplay:10.37,2013-08-25 13:10:00,
2013-08-25 09:11:00,69.0,62.6,30.36,NE,51,0.0,0.0,80,0.00,CLR,,0.00,WeatherDisplay:10.37,2013-08-25 13:11:00,
2013-08-25 09:12:00,69.1,62.7,30.36,NE,51,0.0,0.0,80,0.00,CLR,,0.00,WeatherDisplay:10.37,2013-08-25 13:12:00,
2013-08-25 09:13:00,69.1,62.7,30.36,NE,51,0.0,0.0,80,0.00,CLR,,0.00,WeatherDisplay:10.37,2013-08-25 13:13:00,
2013-08-25 09:14:00,69.1,62.7,30.36,NE,51,0.0,0.0,80,0.00,CLR,,0.00,WeatherDisplay:10.37,2013-08-25 13:14:00,
2013-08-25 09:15:00,69.2,62.8,30.36,NE,51,0.0,0.0,80,0.00,CLR,,0.00,WeatherDisplay:10.37,2013-08-25 13:15:00,
2013-08-25 09:16:00,69.3,62.9,30.36,NE,51,0.0,0.0,80,0.00,CLR,,0.00,WeatherDisplay:10.37,2013-08-25 13:16:00,
2013-08-25 09:18:00,69.4,63.0,30.36,NE,51,0.0,0.0,80,0.00,CLR,,0.00,WeatherDisplay:10.37,2013-08-25 13:18:00,
2013-08-25 09:19:00,69.4,63.0,30.36,NE,51,0.0,0.0,80,0.00,CLR,,0.00,WeatherDisplay:10.37,2013-08-25 13:19:00,
2013-08-25 09:21:00,69.6,63.2,30.36,NE,51,0.0,0.0,80,0.00,CLR,,0.00,WeatherDisplay:10.37,2013-08-25 13:21:00,
2013-08-25 09:23:00,69.7,63.3,30.36,NE,51,0.0,0.0,80,0.00,CLR,,0.00,WeatherDisplay:10.37,2013-08-25 13:23:00,
2013-08-25 09:24:00,69.7,63.3,30.36,NE,51,0.0,0.0,80,0.00,CLR,,0.00,WeatherDisplay:10.37,2013-08-25 13:24:00,
2013-08-25 09:26:00,69.8,63.3,30.36,NE,51,0.0,0.0,80,0.00,CLR,,0.00,WeatherDisplay:10.37,2013-08-25 13:26:00,
2013-08-25 09:28:00,69.9,63.4,30.36,NE,51,0.0,0.0,80,0.00,CLR,,0.00,WeatherDisplay:10.37,2013-08-25 13:28:00,
2013-08-25 09:29:00,70.0,63.5,30.36,NE,51,0.0,0.0,80,0.00,CLR,,0.00,WeatherDisplay:10.37,2013-08-25 13:29:00,
2013-08-25 09:31:00,70.2,63.7,30.36,NE,51,0.0,0.0,80,0.00,CLR,,0.00,WeatherDisplay:10.37,2013-08-25 13:31:00,
2013-08-25 09:33:00,70.3,63.1,30.36,NE,51,0.0,0.0,78,0.00,CLR,,0.00,WeatherDisplay:10.37,2013-08-25 13:33:00,
2013-08-25 09:34:00,70.3,63.1,30.36,NE,51,0.0,0.0,78,0.00,CLR,,0.00,WeatherDisplay:10.37,2013-08-25 13:34:00,
2013-08-25 09:36:00,70.3,62.7,30.36,NE,51,0.0,0.0,77,0.00,CLR,,0.00,WeatherDisplay:10.37,2013-08-25 13:36:00,
2013-08-25 09:38:00,70.4,63.2,30.36,ENE,67,0.0,0.0,78,0.00,CLR,,0.00,WeatherDisplay:10.37,2013-08-25 13:38:00,
2013-08-25 09:39:00,70.5,63.7,30.37,ENE,67,0.0,0.0,79,0.00,CLR,,0.00,WeatherDisplay:10.37,2013-08-25 13:39:00,
2013-08-25 09:41:00,70.6,63.8,30.37,ENE,67,0.0,0.0,79,0.00,CLR,,0.00,WeatherDisplay:10.37,2013-08-25 13:41:00,
2013-08-25 09:43:00,70.8,63.6,30.36,ENE,67,0.0,0.0,78,0.00,CLR,,0.00,WeatherDisplay:10.37,2013-08-25 13:43:00,
2013-08-25 09:44:00,70.9,64.1,30.36,ENE,67,0.0,0.0,79,0.00,CLR,,0.00,WeatherDisplay:10.37,2013-08-25 13:44:00,
2013-08-25 09:46:00,71.0,63.8,30.36,East,79,0.0,0.0,78,0.00,CLR,,0.00,WeatherDisplay:10.37,2013-08-25 13:46:00,
2013-08-25 09:47:00,71.1,63.9,30.36,East,79,0.0,0.0,78,0.00,CLR,,0.00,WeatherDisplay:10.37,2013-08-25 13:47:00,
2013-08-25 09:49:00,71.2,64.0,30.36,East,90,0.0,0.0,78,0.00,CLR,,0.00,WeatherDisplay:10.37,2013-08-25 13:49:00,
2013-08-25 09:51:00,71.3,64.4,30.37,East,94,0.0,0.0,79,0.00,CLR,,0.00,WeatherDisplay:10.37,2013-08-25 13:51:00,
2013-08-25 09:52:00,71.4,64.2,30.36,East,94,0.0,0.0,78,0.00,CLR,,0.00,WeatherDisplay:10.37,2013-08-25 13:52:00,
2013-08-25 09:54:00,71.5,64.6,30.37,East,95,0.0,0.0,79,0.00,CLR,,0.00,WeatherDisplay:10.37,2013-08-25 13:54:00,
2013-08-25 09:55:00,71.5,64.6,30.37,East,100,0.0,0.0,79,0.00,CLR,,0.00,WeatherDisplay:10.37,2013-08-25 13:55:00,
2013-08-25 09:56:00,71.6,64.4,30.37,East,100,0.0,0.0,78,0.00,CLR,,0.00,WeatherDisplay:10.37,2013-08-25 13:56:00,
2013-08-25 09:58:00,71.7,64.8,30.37,East,100,0.0,0.0,79,0.00,CLR,,0.00,WeatherDisplay:10.37,2013-08-25 13:58:00,
2013-08-25 09:59:00,71.8,64.6,30.37,East,100,0.0,0.0,78,0.00,CLR,,0.00,WeatherDisplay:10.37,2013-08-25 13:59:00,
2013-08-25 10:00:00,71.8,64.6,30.37,East,100,0.0,0.0,78,0.00,CLR,,0.00,WeatherDisplay:10.37,2013-08-25 14:00:00,
2013-08-25 10:02:00,72.0,64.8,30.37,East,100,0.0,0.0,78,0.00,FEW,,0.00,WeatherDisplay:10.37,2013-08-25 14:02:00,
2013-08-25 10:03:00,72.0,64.4,30.37,East,100,0.0,0.0,77,0.00,FEW,,0.00,WeatherDisplay:10.37,2013-08-25 14:03:00,
2013-08-25 10:04:00,72.1,64.1,30.37,East,100,0.0,0.0,76,0.00,FEW,,0.00,WeatherDisplay:10.37,2013-08-25 14:04:00,
2013-08-25 10:05:00,72.2,64.2,30.37,East,100,0.0,0.0,76,0.00,FEW,,0.00,WeatherDisplay:10.37,2013-08-25 14:05:00,
2013-08-25 10:07:00,72.3,64.7,30.37,East,96,0.0,0.0,77,0.00,FEW,,0.00,WeatherDisplay:10.37,2013-08-25 14:07:00,
2013-08-25 10:08:00,72.3,64.3,30.37,East,95,0.0,0.0,76,0.00,FEW,,0.00,WeatherDisplay:10.37,2013-08-25 14:08:00,
2013-08-25 10:10:00,72.4,64.4,30.37,East,95,0.0,0.0,76,0.00,FEW,,0.00,WeatherDisplay:10.37,2013-08-25 14:10:00,
2013-08-25 10:13:00,72.5,64.1,30.37,East,95,0.0,0.0,75,0.00,FEW,,0.00,WeatherDisplay:10.37,2013-08-25 14:13:00,
2013-08-25 10:15:00,72.5,64.5,30.37,East,95,0.0,0.0,76,0.00,FEW,,0.00,WeatherDisplay:10.37,2013-08-25 14:15:00,
2013-08-25 10:18:00,72.6,63.8,30.37,East,95,0.0,0.0,74,0.00,FEW,,0.00,WeatherDisplay:10.37,2013-08-25 14:18:00,
2013-08-25 10:19:00,72.6,63.8,30.37,East,95,0.0,0.0,74,0.00,FEW,,0.00,WeatherDisplay:10.37,2013-08-25 14:19:00,
2013-08-25 10:20:00,72.7,64.3,30.37,East,95,0.0,0.0,75,0.00,FEW,,0.00,WeatherDisplay:10.37,2013-08-25 14:20:00,
2013-08-25 10:23:00,72.8,63.6,30.37,East,95,0.0,0.0,73,0.00,FEW,,0.00,WeatherDisplay:10.37,2013-08-25 14:23:00,
2013-08-25 10:24:00,72.8,63.6,30.37,East,95,0.0,0.0,73,0.00,FEW,,0.00,WeatherDisplay:10.37,2013-08-25 14:24:00,
2013-08-25 10:25:00,72.8,63.6,30.37,East,93,0.0,0.0,73,0.00,FEW,,0.00,WeatherDisplay:10.37,2013-08-25 14:25:00,
2013-08-25 10:28:00,72.9,64.1,30.37,East,92,0.0,0.0,74,0.00,FEW,,0.00,WeatherDisplay:10.37,2013-08-25 14:28:00,
2013-08-25 10:29:00,72.9,63.7,30.37,East,93,0.0,0.0,73,0.00,FEW,,0.00,WeatherDisplay:10.37,2013-08-25 14:29:00,
2013-08-25 10:30:00,73.0,64.2,30.37,ENE,62,0.0,0.0,74,0.00,FEW,,0.00,WeatherDisplay:10.37,2013-08-25 14:30:00,
2013-08-25 10:34:00,73.2,64.0,30.37,NNE,27,0.0,0.0,73,0.00,FEW,,0.00,WeatherDisplay:10.37,2013-08-25 14:34:00,
2013-08-25 10:35:00,73.2,64.0,30.37,NNE,27,0.0,0.0,73,0.00,FEW,,0.00,WeatherDisplay:10.37,2013-08-25 14:35:00,
2013-08-25 10:39:00,73.6,65.6,30.37,NE,44,0.0,0.0,76,0.00,FEW,,0.00,WeatherDisplay:10.37,2013-08-25 14:39:00,
2013-08-25 10:40:00,73.7,64.9,30.37,ESE,102,0.0,0.0,74,0.00,FEW,,0.00,WeatherDisplay:10.37,2013-08-25 14:40:00,
2013-08-25 10:41:00,73.8,65.4,30.37,ESE,106,0.0,0.0,75,0.00,FEW,,0.00,WeatherDisplay:10.37,2013-08-25 14:41:00,
2013-08-25 10:44:00,74.0,65.6,30.37,NE,54,0.0,0.0,75,0.00,FEW,,0.00,WeatherDisplay:10.37,2013-08-25 14:44:00,
2013-08-25 10:45:00,74.1,65.7,30.37,NE,54,0.0,0.0,75,0.00,FEW,,0.00,WeatherDisplay:10.37,2013-08-25 14:45:00,
2013-08-25 10:46:00,74.1,65.7,30.37,NE,54,0.0,0.0,75,0.00,FEW,,0.00,WeatherDisplay:10.37,2013-08-25 14:46:00,
2013-08-25 10:49:00,74.4,66.0,30.36,East,80,0.0,0.0,75,0.00,FEW,,0.00,WeatherDisplay:10.37,2013-08-25 14:49:00,
2013-08-25 10:50:00,74.6,66.1,30.37,East,80,0.0,0.0,75,0.00,FEW,,0.00,WeatherDisplay:10.37,2013-08-25 14:50:00,
2013-08-25 10:51:00,74.6,66.1,30.36,East,80,0.0,0.0,75,0.00,FEW,,0.00,WeatherDisplay:10.37,2013-08-25 14:51:00,
2013-08-25 10:54:00,75.0,66.5,30.36,East,86,0.0,0.0,75,0.00,FEW,,0.00,WeatherDisplay:10.37,2013-08-25 14:54:00,
2013-08-25 10:55:00,75.1,66.6,30.36,East,86,0.0,0.0,75,0.00,FEW,,0.00,WeatherDisplay:10.37,2013-08-25 14:55:00,
2013-08-25 10:56:00,75.1,66.6,30.36,East,86,0.0,0.0,75,0.00,FEW,,0.00,WeatherDisplay:10.37,2013-08-25 14:56:00,
2013-08-25 11:00:00,75.5,66.6,30.36,East,88,0.0,0.0,74,0.00,FEW,,0.00,WeatherDisplay:10.37,2013-08-25 15:00:00,
2013-08-25 11:01:00,75.6,67.1,30.36,East,88,0.0,0.0,75,0.00,FEW,,0.00,WeatherDisplay:10.37,2013-08-25 15:01:00,
2013-08-25 11:05:00,76.0,67.1,30.36,East,87,0.0,0.0,74,0.00,FEW,,0.00,WeatherDisplay:10.37,2013-08-25 15:05:00,
2013-08-25 11:06:00,76.1,66.8,30.36,East,87,0.0,0.0,73,0.00,FEW,,0.00,WeatherDisplay:10.37,2013-08-25 15:06:00,
2013-08-25 11:07:00,76.1,66.8,30.36,East,87,0.0,0.0,73,0.00,FEW,,0.00,WeatherDisplay:10.37,2013-08-25 15:07:00,
2013-08-25 11:10:00,76.4,66.7,30.36,East,84,0.0,0.0,72,0.00,FEW,,0.00,WeatherDisplay:10.37,2013-08-25 15:10:00,
2013-08-25 11:11:00,76.4,66.3,30.36,NE,38,0.0,0.0,71,0.00,FEW,,0.00,WeatherDisplay:10.37,2013-08-25 15:11:00,
2013-08-25 11:12:00,76.4,65.5,30.36,North,11,0.0,0.0,69,0.00,FEW,,0.00,WeatherDisplay:10.37,2013-08-25 15:12:00,
2013-08-25 11:15:00,76.1,64.8,30.36,North,354,0.0,0.0,68,0.00,FEW,,0.00,WeatherDisplay:10.37,2013-08-25 15:15:00,
2013-08-25 11:16:00,76.2,64.9,30.36,North,353,0.0,0.0,68,0.00,FEW,,0.00,WeatherDisplay:10.37,2013-08-25 15:16:00,
2013-08-25 11:17:00,76.0,65.1,30.36,NNE,19,0.0,0.0,69,0.00,FEW,,0.00,WeatherDisplay:10.37,2013-08-25 15:17:00,
2013-08-25 11:20:00,76.3,66.6,30.36,ESE,106,0.0,0.0,72,0.00,FEW,,0.00,WeatherDisplay:10.37,2013-08-25 15:20:00,
2013-08-25 11:21:00,76.3,67.0,30.36,East,95,0.0,0.0,73,0.00,FEW,,0.00,WeatherDisplay:10.37,2013-08-25 15:21:00,
2013-08-25 11:22:00,76.5,66.8,30.36,ESE,105,0.0,0.0,72,0.00,FEW,,0.00,WeatherDisplay:10.37,2013-08-25 15:22:00,
2013-08-25 11:25:00,76.8,65.9,30.36,NNE,17,0.0,0.0,69,0.00,FEW,,0.00,WeatherDisplay:10.37,2013-08-25 15:25:00,
2013-08-25 11:26:00,76.8,65.4,30.36,NNE,17,0.0,0.0,68,0.00,FEW,,0.00,WeatherDisplay:10.37,2013-08-25 15:26:00,
2013-08-25 11:27:00,76.8,64.6,30.36,NNW,342,0.0,0.0,66,0.00,FEW,,0.00,WeatherDisplay:10.37,2013-08-25 15:27:00,
2013-08-25 11:30:00,76.8,66.3,30.36,ENE,63,0.0,0.0,70,0.00,FEW,,0.00,WeatherDisplay:10.37,2013-08-25 15:30:00,
2013-08-25 11:31:00,76.8,66.7,30.36,ENE,78,0.0,0.0,71,0.00,FEW,,0.00,WeatherDisplay:10.37,2013-08-25 15:31:00,
2013-08-25 11:32:00,76.9,67.6,30.36,ENE,78,0.0,0.0,73,0.00,FEW,,0.00,WeatherDisplay:10.37,2013-08-25 15:32:00,
2013-08-25 11:33:00,77.0,67.3,30.36,NE,53,0.0,0.0,72,0.00,FEW,,0.00,WeatherDisplay:10.37,2013-08-25 15:33:00,
2013-08-25 11:36:00,77.3,65.9,30.36,East,85,0.0,0.0,68,0.00,FEW,,0.00,WeatherDisplay:10.37,2013-08-25 15:36:00,
2013-08-25 11:37:00,77.4,66.4,30.36,East,87,0.0,0.0,69,0.00,FEW,,0.00,WeatherDisplay:10.37,2013-08-25 15:37:00,
2013-08-25 11:38:00,77.5,66.9,30.36,ENE,77,0.0,0.0,70,0.00,FEW,,0.00,WeatherDisplay:10.37,2013-08-25 15:38:00,
2013-08-25 11:41:00,77.8,66.8,30.36,East,94,0.0,0.0,69,0.00,FEW,,0.00,WeatherDisplay:10.37,2013-08-25 15:41:00,
2013-08-25 11:42:00,78.0,67.0,30.36,East,94,0.0,0.0,69,0.00,FEW,,0.00,WeatherDisplay:10.37,2013-08-25 15:42:00,
2013-08-25 11:43:00,78.1,67.1,30.39,NE,47,0.0,0.0,69,0.00,FEW,,0.00,WeatherDisplay:10.37,2013-08-25 15:43:00,
2013-08-25 11:46:00,78.2,66.8,30.36,ENE,69,0.0,0.0,68,0.00,FEW,,0.00,WeatherDisplay:10.37,2013-08-25 15:46:00,
2013-08-25 11:47:00,78.5,67.5,30.35,ENE,69,0.0,0.0,69,0.00,FEW,,0.00,WeatherDisplay:10.37,2013-08-25 15:47:00,
2013-08-25 11:48:00,78.5,67.9,30.35,ENE,69,0.0,0.0,70,0.00,FEW,,0.00,WeatherDisplay:10.37,2013-08-25 15:48:00,
2013-08-25 11:51:00,78.8,67.8,30.35,ENE,73,0.0,0.0,69,0.00,FEW,,0.00,WeatherDisplay:10.37,2013-08-25 15:51:00,
2013-08-25 11:52:00,78.8,67.8,30.35,ENE,73,0.0,0.0,69,0.00,FEW,,0.00,WeatherDisplay:10.37,2013-08-25 15:52:00,
2013-08-25 11:53:00,78.8,67.3,30.36,ENE,74,0.0,0.0,68,0.00,FEW,,0.00,WeatherDisplay:10.37,2013-08-25 15:53:00,
2013-08-25 11:56:00,79.2,68.1,30.35,East,84,0.0,0.0,69,0.00,FEW,,0.00,WeatherDisplay:10.37,2013-08-25 15:56:00,
2013-08-25 11:57:00,79.2,68.1,30.35,East,85,0.0,0.0,69,0.00,FEW,,0.00,WeatherDisplay:10.37,2013-08-25 15:57:00,
2013-08-25 11:58:00,79.4,67.9,30.35,East,92,0.0,0.0,68,0.00,FEW,,0.00,WeatherDisplay:10.37,2013-08-25 15:58:00,
2013-08-25 11:59:00,79.5,68.0,30.35,East,92,0.0,0.0,68,0.00,FEW,,0.00,WeatherDisplay:10.37,2013-08-25 15:59:00,
2013-08-25 12:02:00,79.6,66.8,30.35,North,355,0.0,0.0,65,0.00,FEW,,0.00,WeatherDisplay:10.37,2013-08-25 16:02:00,
2013-08-25 12:03:00,79.6,66.3,30.40,NNW,346,0.0,0.0,64,0.00,FEW,,0.00,WeatherDisplay:10.37,2013-08-25 16:03:00,
2013-08-25 12:04:00,79.3,65.6,30.37,North,350,0.0,0.0,63,0.00,FEW,,0.00,WeatherDisplay:10.37,2013-08-25 16:04:00,
2013-08-25 12:07:00,79.5,66.3,30.40,NNW,327,0.0,0.0,64,0.00,FEW,,0.00,WeatherDisplay:10.37,2013-08-25 16:07:00,
2013-08-25 12:08:00,79.4,67.0,30.36,North,2,0.0,0.0,66,0.00,FEW,,0.00,WeatherDisplay:10.37,2013-08-25 16:08:00,
2013-08-25 12:09:00,79.3,66.5,30.35,North,3,0.0,0.0,65,0.00,FEW,,0.00,WeatherDisplay:10.37,2013-08-25 16:09:00,
2013-08-25 12:12:00,79.4,67.0,30.35,NE,54,0.0,0.0,66,0.00,FEW,,0.00,WeatherDisplay:10.37,2013-08-25 16:12:00,
2013-08-25 12:13:00,79.5,66.7,30.35,NE,54,0.0,0.0,65,0.00,FEW,,0.00,WeatherDisplay:10.37,2013-08-25 16:13:00,
2013-08-25 12:14:00,79.6,66.8,30.35,NE,54,0.0,0.0,65,0.00,FEW,,0.00,WeatherDisplay:10.37,2013-08-25 16:14:00,
2013-08-25 12:17:00,80.0,68.1,30.35,ESE,117,0.0,0.0,67,0.00,FEW,,0.00,WeatherDisplay:10.37,2013-08-25 16:17:00,
2013-08-25 12:18:00,80.0,67.6,30.35,ESE,117,0.0,0.0,66,0.00,FEW,,0.00,WeatherDisplay:10.37,2013-08-25 16:18:00,
2013-08-25 12:19:00,80.1,67.7,30.35,East,90,0.0,0.0,66,0.00,FEW,,0.00,WeatherDisplay:10.37,2013-08-25 16:19:00,
2013-08-25 12:23:00,80.0,67.2,30.34,North,0,0.0,0.0,65,0.00,FEW,,0.00,WeatherDisplay:10.37,2013-08-25 16:23:00,
2013-08-25 12:24:00,80.0,67.6,30.35,NE,35,0.0,0.0,66,0.00,FEW,,0.00,WeatherDisplay:10.37,2013-08-25 16:24:00,
2013-08-25 12:28:00,79.9,66.6,30.34,North,10,0.0,0.0,64,0.00,FEW,,0.00,WeatherDisplay:10.37,2013-08-25 16:28:00,
2013-08-25 12:29:00,80.0,66.7,30.34,North,10,0.0,0.0,64,0.00,FEW,,0.00,WeatherDisplay:10.37,2013-08-25 16:29:00,
2013-08-25 12:33:00,80.2,67.4,30.34,East,91,0.0,0.0,65,0.00,FEW,,0.00,WeatherDisplay:10.37,2013-08-25 16:33:00,
2013-08-25 12:34:00,80.2,67.4,30.34,East,91,0.0,0.0,65,0.00,FEW,,0.00,WeatherDisplay:10.37,2013-08-25 16:34:00,
2013-08-25 12:35:00,80.3,67.5,30.34,North,9,0.0,0.0,65,0.00,FEW,,0.00,WeatherDisplay:10.37,2013-08-25 16:35:00,
2013-08-25 12:39:00,80.3,67.5,30.34,NW,312,0.0,0.0,65,0.00,FEW,,0.00,WeatherDisplay:10.37,2013-08-25 16:39:00,
2013-08-25 12:40:00,80.4,67.1,30.34,WSW,252,0.0,0.0,64,0.00,FEW,,0.00,WeatherDisplay:10.37,2013-08-25 16:40:00,
2013-08-25 12:44:00,80.7,67.4,30.34,SSW,209,0.0,0.0,64,0.00,FEW,,0.00,WeatherDisplay:10.37,2013-08-25 16:44:00,
2013-08-25 12:45:00,80.7,67.4,30.34,South,191,0.0,0.0,64,0.00,FEW,,0.00,WeatherDisplay:10.37,2013-08-25 16:45:00,
2013-08-25 12:49:00,80.1,67.3,30.33,ESE,123,0.0,0.0,65,0.00,FEW,,0.00,WeatherDisplay:10.37,2013-08-25 16:49:00,
2013-08-25 12:50:00,79.5,67.1,30.33,SE,126,0.0,0.0,66,0.00,FEW,,0.00,WeatherDisplay:10.37,2013-08-25 16:50:00,
2013-08-25 12:54:00,79.9,67.1,30.33,ENE,68,0.0,0.0,65,0.00,FEW,,0.00,WeatherDisplay:10.37,2013-08-25 16:54:00,
2013-08-25 12:55:00,81.4,68.9,30.33,ENE,71,0.0,0.0,66,0.00,FEW,,0.00,WeatherDisplay:10.37,2013-08-25 16:55:00,
2013-08-25 12:56:00,81.5,69.5,30.33,East,91,0.0,0.0,67,0.00,FEW,,0.00,WeatherDisplay:10.37,2013-08-25 16:56:00,
2013-08-25 12:59:00,82.5,69.5,30.33,ESE,107,0.0,0.0,65,0.00,FEW,,0.00,WeatherDisplay:10.37,2013-08-25 16:59:00,
2013-08-25 13:00:00,82.5,69.5,30.33,East,91,0.0,0.0,65,0.00,FEW,,0.00,WeatherDisplay:10.37,2013-08-25 17:00:00,
2013-08-25 13:01:00,82.7,69.7,30.33,East,91,0.0,0.0,65,0.00,FEW,,0.00,WeatherDisplay:10.37,2013-08-25 17:01:00,
2013-08-25 13:02:00,82.8,69.4,30.33,ENE,78,0.0,0.0,64,0.00,FEW,,0.00,WeatherDisplay:10.37,2013-08-25 17:02:00,
2013-08-25 13:04:00,82.8,68.4,30.33,NNE,29,0.0,0.0,62,0.00,FEW,,0.00,WeatherDisplay:10.37,2013-08-25 17:04:00,
2013-08-25 13:05:00,82.8,68.4,30.33,ENE,59,0.0,0.0,62,0.00,FEW,,0.00,WeatherDisplay:10.37,2013-08-25 17:05:00,
2013-08-25 13:06:00,82.8,68.0,30.33,NNE,32,0.0,0.0,61,0.00,FEW,,0.00,WeatherDisplay:10.37,2013-08-25 17:06:00,
2013-08-25 13:07:00,82.7,67.9,30.33,NE,42,0.0,0.0,61,0.00,FEW,,0.00,WeatherDisplay:10.37,2013-08-25 17:07:00,
2013-08-25 13:09:00,82.6,67.3,30.33,NE,55,0.0,0.0,60,0.00,FEW,,0.00,WeatherDisplay:10.37,2013-08-25 17:09:00,
2013-08-25 13:10:00,82.5,68.6,30.32,East,91,0.0,0.0,63,0.00,FEW,,0.00,WeatherDisplay:10.37,2013-08-25 17:10:00,
2013-08-25 13:11:00,82.4,69.4,30.32,ENE,71,0.0,0.0,65,0.00,FEW,,0.00,WeatherDisplay:10.37,2013-08-25 17:11:00,
2013-08-25 13:12:00,82.6,69.2,30.32,ENE,73,0.0,0.0,64,0.00,FEW,,0.00,WeatherDisplay:10.37,2013-08-25 17:12:00,
2013-08-25 13:14:00,83.0,70.0,30.32,ENE,73,0.0,0.0,65,0.00,FEW,,0.00,WeatherDisplay:10.37,2013-08-25 17:14:00,
2013-08-25 13:15:00,83.1,70.6,30.32,East,84,0.0,0.0,66,0.00,FEW,,0.00,WeatherDisplay:10.37,2013-08-25 17:15:00,
2013-08-25 13:16:00,83.3,70.3,30.32,NE,55,0.0,0.0,65,0.00,FEW,,0.00,WeatherDisplay:10.37,2013-08-25 17:16:00,
2013-08-25 13:17:00,83.5,68.6,30.32,NE,53,0.0,0.0,61,0.00,FEW,,0.00,WeatherDisplay:10.37,2013-08-25 17:17:00,
2013-08-25 13:20:00,83.8,69.9,30.32,East,81,0.0,0.0,63,0.00,FEW,,0.00,WeatherDisplay:10.37,2013-08-25 17:20:00,
2013-08-25 13:21:00,83.9,69.5,30.32,East,86,0.0,0.0,62,0.00,FEW,,0.00,WeatherDisplay:10.37,2013-08-25 17:21:00,
2013-08-25 13:22:00,84.0,68.1,30.32,East,79,0.0,0.0,59,0.00,FEW,,0.00,WeatherDisplay:10.37,2013-08-25 17:22:00,
2013-08-25 13:25:00,83.9,67.0,30.32,NNE,16,0.0,0.0,57,0.00,FEW,,0.00,WeatherDisplay:10.37,2013-08-25 17:25:00,
2013-08-25 13:26:00,83.7,67.4,30.32,NNE,16,0.0,0.0,58,0.00,FEW,,0.00,WeatherDisplay:10.37,2013-08-25 17:26:00,
2013-08-25 13:27:00,83.7,67.8,30.32,NNE,16,0.0,0.0,59,0.00,FEW,,0.00,WeatherDisplay:10.37,2013-08-25 17:27:00,
2013-08-25 13:30:00,83.6,67.8,30.32,NNW,336,0.0,0.0,59,0.00,FEW,,0.00,WeatherDisplay:10.37,2013-08-25 17:30:00,
2013-08-25 13:31:00,83.5,68.2,30.32,NNW,335,0.0,0.0,60,0.00,FEW,,0.00,WeatherDisplay:10.37,2013-08-25 17:31:00,
2013-08-25 13:32:00,83.6,68.7,30.32,NNW,336,0.0,0.0,61,0.00,FEW,,0.00,WeatherDisplay:10.37,2013-08-25 17:32:00,
2013-08-25 13:35:00,84.0,68.6,30.32,ENE,57,0.0,0.0,60,0.00,FEW,,0.00,WeatherDisplay:10.37,2013-08-25 17:35:00,
2013-08-25 13:36:00,84.1,68.7,30.32,NE,38,0.0,0.0,60,0.00,FEW,,0.00,WeatherDisplay:10.37,2013-08-25 17:36:00,
2013-08-25 13:37:00,84.1,66.7,30.32,North,349,0.0,0.0,56,0.00,FEW,,0.00,WeatherDisplay:10.37,2013-08-25 17:37:00,
2013-08-25 13:40:00,84.1,69.7,30.32,East,86,0.0,0.0,62,0.00,FEW,,0.00,WeatherDisplay:10.37,2013-08-25 17:40:00,
2013-08-25 13:41:00,84.2,69.8,30.32,East,86,0.0,0.0,62,0.00,FEW,,0.00,WeatherDisplay:10.37,2013-08-25 17:41:00,
2013-08-25 13:42:00,84.3,69.9,30.32,East,87,0.0,0.0,62,0.00,FEW,,0.00,WeatherDisplay:10.37,2013-08-25 17:42:00,
2013-08-25 13:46:00,84.1,69.2,30.32,ENE,69,0.0,0.0,61,0.00,FEW,,0.00,WeatherDisplay:10.37,2013-08-25 17:46:00,
2013-08-25 13:47:00,84.0,67.6,30.32,ENE,68,0.0,0.0,58,0.00,FEW,,0.00,WeatherDisplay:10.37,2013-08-25 17:47:00,
2013-08-25 13:48:00,83.8,67.4,30.32,ENE,68,0.0,0.0,58,0.00,FEW,,0.00,WeatherDisplay:10.37,2013-08-25 17:48:00,
2013-08-25 13:51:00,84.0,68.1,30.32,ENE,68,0.0,0.0,59,0.00,FEW,,0.00,WeatherDisplay:10.37,2013-08-25 17:51:00,
2013-08-25 13:52:00,84.2,69.3,30.32,ENE,64,0.0,0.0,61,0.00,FEW,,0.00,WeatherDisplay:10.37,2013-08-25 17:52:00,
2013-08-25 13:53:00,84.2,68.8,30.31,ENE,64,0.0,0.0,60,0.00,FEW,,0.00,WeatherDisplay:10.37,2013-08-25 17:53:00,
2013-08-25 13:56:00,84.8,69.9,30.31,ENE,68,0.0,0.0,61,0.00,FEW,,0.00,WeatherDisplay:10.37,2013-08-25 17:56:00,
2013-08-25 13:57:00,84.8,69.9,30.31,ENE,68,0.0,0.0,61,0.00,FEW,,0.00,WeatherDisplay:10.37,2013-08-25 17:57:00,
2013-08-25 13:58:00,84.9,69.0,30.31,ENE,68,0.0,0.0,59,0.00,FEW,,0.00,WeatherDisplay:10.37,2013-08-25 17:58:00,
2013-08-25 14:02:00,84.4,69.5,30.31,NNE,25,0.0,0.0,61,0.00,SCT,,0.00,WeatherDisplay:10.37,2013-08-25 18:02:00,
2013-08-25 14:03:00,84.2,68.8,30.31,NNE,25,0.0,0.0,60,0.00,SCT,,0.00,WeatherDisplay:10.37,2013-08-25 18:03:00,
2013-08-25 14:04:00,84.3,68.9,30.31,NNE,25,0.0,0.0,60,0.00,SCT,,0.00,WeatherDisplay:10.37,2013-08-25 18:04:00,
2013-08-25 14:07:00,83.7,67.4,30.31,North,5,0.0,0.0,58,0.00,SCT,,0.00,WeatherDisplay:10.37,2013-08-25 18:07:00,
2013-08-25 14:08:00,83.5,66.7,30.31,North,3,0.0,0.0,57,0.00,SCT,,0.00,WeatherDisplay:10.37,2013-08-25 18:08:00,
2013-08-25 14:09:00,83.1,67.3,30.31,North,1,0.0,0.0,59,0.00,SCT,,0.00,WeatherDisplay:10.37,2013-08-25 18:09:00,
2013-08-25 14:12:00,82.4,67.6,30.31,North,359,0.0,0.0,61,0.00,SCT,,0.00,WeatherDisplay:10.37,2013-08-25 18:12:00,
2013-08-25 14:13:00,82.5,67.7,30.31,North,359,0.0,0.0,61,0.00,SCT,,0.00,WeatherDisplay:10.37,2013-08-25 18:13:00,
2013-08-25 14:14:00,82.7,67.9,30.31,North,359,0.0,0.0,61,0.00,SCT,,0.00,WeatherDisplay:10.37,2013-08-25 18:14:00,
2013-08-25 14:17:00,83.2,68.3,30.31,North,355,0.0,0.0,61,0.00,SCT,,0.00,WeatherDisplay:10.37,2013-08-25 18:17:00,
2013-08-25 14:18:00,83.4,67.1,30.31,North,355,0.0,0.0,58,0.00,SCT,,0.00,WeatherDisplay:10.37,2013-08-25 18:18:00,
2013-08-25 14:19:00,83.5,67.2,30.31,NNW,334,0.0,0.0,58,0.00,SCT,,0.00,WeatherDisplay:10.37,2013-08-25 18:19:00,
2013-08-25 14:22:00,83.9,67.0,30.30,North,352,0.0,0.0,57,0.00,SCT,,0.00,WeatherDisplay:10.37,2013-08-25 18:22:00,
2013-08-25 14:23:00,84.0,66.1,30.30,NNW,347,0.0,0.0,55,0.00,SCT,,0.00,WeatherDisplay:10.37,2013-08-25 18:23:00,
2013-08-25 14:24:00,84.1,67.7,30.30,East,88,0.0,0.0,58,0.00,SCT,,0.00,WeatherDisplay:10.37,2013-08-25 18:24:00,
2013-08-25 14:27:00,84.6,66.1,30.30,NNW,337,0.0,0.0,54,0.00,SCT,,0.00,WeatherDisplay:10.37,2013-08-25 18:27:00,
2013-08-25 14:28:00,84.8,69.4,30.30,ENE,75,0.0,0.0,60,0.00,SCT,,0.00,WeatherDisplay:10.37,2013-08-25 18:28:00,
2013-08-25 14:29:00,84.9,69.0,30.30,ENE,75,0.0,0.0,59,0.00,SCT,,0.00,WeatherDisplay:10.37,2013-08-25 18:29:00,
2013-08-25 14:32:00,85.3,69.3,30.30,East,88,0.0,0.0,59,0.00,SCT,,0.00,WeatherDisplay:10.37,2013-08-25 18:32:00,
2013-08-25 14:33:00,85.3,85.3,30.30,NE,42,0.0,0.0,100,0.00,SCT,,0.00,WeatherDisplay:10.37,2013-08-25 18:33:00,
2013-08-25 14:34:00,85.3,85.3,30.30,NW,322,0.0,0.0,100,0.00,SCT,,0.00,WeatherDisplay:10.37,2013-08-25 18:34:00,
2013-08-25 14:37:00,85.6,85.6,30.30,ENE,69,0.0,0.0,100,0.00,SCT,,0.00,WeatherDisplay:10.37,2013-08-25 18:37:00,
2013-08-25 14:38:00,85.9,85.9,30.30,ENE,78,0.0,0.0,100,0.00,SCT,,0.00,WeatherDisplay:10.37,2013-08-25 18:38:00,
2013-08-25 14:39:00,85.9,85.9,30.30,East,87,0.0,0.0,100,0.00,SCT,,0.00,WeatherDisplay:10.37,2013-08-25 18:39:00,
2013-08-25 14:40:00,86.2,86.2,30.30,East,88,0.0,0.0,100,0.00,SCT,,0.00,WeatherDisplay:10.37,2013-08-25 18:40:00,
2013-08-25 14:42:00,86.5,70.0,30.30,East,91,0.0,0.0,58,0.00,SCT,,0.00,WeatherDisplay:10.37,2013-08-25 18:42:00,
2013-08-25 14:44:00,86.9,70.3,30.29,ENE,68,0.0,0.0,58,0.00,SCT,,0.00,WeatherDisplay:10.37,2013-08-25 18:44:00,
2013-08-25 14:45:00,87.1,70.0,30.29,ENE,63,0.0,0.0,57,0.00,SCT,,0.00,WeatherDisplay:10.37,2013-08-25 18:45:00,
2013-08-25 14:47:00,87.3,70.2,30.29,ENE,63,0.0,0.0,57,0.00,SCT,,0.00,WeatherDisplay:10.37,2013-08-25 18:47:00,
2013-08-25 14:49:00,87.5,69.9,30.29,ENE,63,0.0,0.0,56,0.00,SCT,,0.00,WeatherDisplay:10.37,2013-08-25 18:49:00,
2013-08-25 14:50:00,87.7,70.6,30.29,ENE,69,0.0,0.0,57,0.00,SCT,,0.00,WeatherDisplay:10.37,2013-08-25 18:50:00,
2013-08-25 14:52:00,87.9,70.2,30.29,ENE,67,0.0,0.0,56,0.00,SCT,,0.00,WeatherDisplay:10.37,2013-08-25 18:52:00,
2013-08-25 14:54:00,88.7,68.2,30.29,NE,48,0.0,0.0,51,0.00,SCT,,0.00,WeatherDisplay:10.37,2013-08-25 18:54:00,
2013-08-25 14:55:00,88.7,67.1,30.29,NE,48,0.0,0.0,49,0.00,SCT,,0.00,WeatherDisplay:10.37,2013-08-25 18:55:00,
2013-08-25 14:57:00,88.6,68.2,30.29,NE,48,0.0,0.0,51,0.00,SCT,,0.00,WeatherDisplay:10.37,2013-08-25 18:57:00,
2013-08-25 14:59:00,88.8,68.9,30.28,ENE,71,0.0,0.0,52,0.00,SCT,,0.00,WeatherDisplay:10.37,2013-08-25 18:59:00,
2013-08-25 15:00:00,88.8,68.3,30.28,ENE,65,0.0,0.0,51,0.00,SCT,,0.00,WeatherDisplay:10.37,2013-08-25 19:00:00,
2013-08-25 15:02:00,88.9,69.6,30.28,North,356,0.0,0.0,53,0.00,SCT,,0.00,WeatherDisplay:10.37,2013-08-25 19:02:00,
2013-08-25 15:04:00,88.7,67.1,30.28,NE,35,0.0,0.0,49,0.00,SCT,,0.00,WeatherDisplay:10.37,2013-08-25 19:04:00,
2013-08-25 15:05:00,88.7,68.2,30.28,NE,42,0.0,0.0,51,0.00,SCT,,0.00,WeatherDisplay:10.37,2013-08-25 19:05:00,
2013-08-25 15:07:00,88.3,69.0,30.28,NNE,19,0.0,0.0,53,0.00,SCT,,0.00,WeatherDisplay:10.37,2013-08-25 19:07:00,
2013-08-25 15:09:00,87.8,66.8,30.28,NNE,13,0.0,0.0,50,0.00,SCT,,0.00,WeatherDisplay:10.37,2013-08-25 19:09:00,
2013-08-25 15:10:00,87.5,67.1,30.28,NE,36,0.0,0.0,51,0.00,SCT,,0.00,WeatherDisplay:10.37,2013-08-25 19:10:00,
2013-08-25 15:11:00,87.1,66.2,30.28,North,5,0.0,0.0,50,0.00,SCT,,0.00,WeatherDisplay:10.37,2013-08-25 19:11:00,
2013-08-25 15:12:00,86.8,67.6,30.28,NNE,22,0.0,0.0,53,0.00,SCT,,0.00,WeatherDisplay:10.37,2013-08-25 19:12:00,
2013-08-25 15:14:00,86.4,67.8,30.28,NE,49,0.0,0.0,54,0.00,SCT,,0.00,WeatherDisplay:10.37,2013-08-25 19:14:00,
2013-08-25 15:15:00,86.3,68.8,30.28,ENE,58,0.0,0.0,56,0.00,SCT,,0.00,WeatherDisplay:10.37,2013-08-25 19:15:00,
2013-08-25 15:17:00,86.5,70.0,30.28,ENE,58,0.0,0.0,58,0.00,SCT,,0.00,WeatherDisplay:10.37,2013-08-25 19:17:00,
2013-08-25 15:19:00,87.0,69.4,30.28,NE,45,0.0,0.0,56,0.00,SCT,,0.00,WeatherDisplay:10.37,2013-08-25 19:19:00,
2013-08-25 15:20:00,87.3,70.2,30.28,ENE,60,0.0,0.0,57,0.00,SCT,,0.00,WeatherDisplay:10.37,2013-08-25 19:20:00,
2013-08-25 15:22:00,87.8,69.6,30.28,ENE,63,0.0,0.0,55,0.00,SCT,,0.00,WeatherDisplay:10.37,2013-08-25 19:22:00,
2013-08-25 15:25:00,87.5,66.6,30.28,NNW,331,0.0,0.0,50,0.00,SCT,,0.00,WeatherDisplay:10.37,2013-08-25 19:25:00,
2013-08-25 15:26:00,87.3,67.0,30.28,North,359,0.0,0.0,51,0.00,SCT,,0.00,WeatherDisplay:10.37,2013-08-25 19:26:00,
2013-08-25 15:27:00,86.9,68.8,30.28,NE,39,0.0,0.0,55,0.00,SCT,,0.00,WeatherDisplay:10.37,2013-08-25 19:27:00,
2013-08-25 15:30:00,86.9,69.3,30.27,NNE,13,0.0,0.0,56,0.00,SCT,,0.00,WeatherDisplay:10.37,2013-08-25 19:30:00,
2013-08-25 15:31:00,87.0,69.4,30.28,NE,35,0.0,0.0,56,0.00,SCT,,0.00,WeatherDisplay:10.37,2013-08-25 19:31:00,
2013-08-25 15:32:00,87.3,69.2,30.27,North,9,0.0,0.0,55,0.00,SCT,,0.00,WeatherDisplay:10.37,2013-08-25 19:32:00,
2013-08-25 15:33:00,87.3,67.0,30.28,NNW,340,0.0,0.0,51,0.00,SCT,,0.00,WeatherDisplay:10.37,2013-08-25 19:33:00,
2013-08-25 15:36:00,87.1,67.9,30.27,NNW,344,0.0,0.0,53,0.00,SCT,,0.00,WeatherDisplay:10.37,2013-08-25 19:36:00,
2013-08-25 15:37:00,86.8,68.7,30.27,NE,44,0.0,0.0,55,0.00,SCT,,0.00,WeatherDisplay:10.37,2013-08-25 19:37:00,
2013-08-25 15:38:00,86.6,68.5,30.28,North,359,0.0,0.0,55,0.00,SCT,,0.00,WeatherDisplay:10.37,2013-08-25 19:38:00,
2013-08-25 15:41:00,85.8,67.8,30.27,NW,309,0.0,0.0,55,0.00,SCT,,0.00,WeatherDisplay:10.37,2013-08-25 19:41:00,
2013-08-25 15:42:00,85.3,67.3,30.27,WNW,298,0.0,0.0,55,0.00,SCT,,0.00,WeatherDisplay:10.37,2013-08-25 19:42:00,
2013-08-25 15:43:00,84.7,66.2,30.27,NNW,336,0.0,0.0,54,0.00,SCT,,0.00,WeatherDisplay:10.37,2013-08-25 19:43:00,
2013-08-25 15:46:00,84.9,67.5,30.27,NNW,341,0.0,0.0,56,0.00,SCT,,0.00,WeatherDisplay:10.37,2013-08-25 19:46:00,
2013-08-25 15:47:00,85.0,68.1,30.27,NNE,25,0.0,0.0,57,0.00,SCT,,0.00,WeatherDisplay:10.37,2013-08-25 19:47:00,
2013-08-25 15:48:00,85.2,67.7,30.27,NE,38,0.0,0.0,56,0.00,SCT,,0.00,WeatherDisplay:10.37,2013-08-25 19:48:00,
2013-08-25 15:49:00,85.5,68.5,30.27,East,90,0.0,0.0,57,0.00,SCT,,0.00,WeatherDisplay:10.37,2013-08-25 19:49:00,
2013-08-25 15:51:00,86.1,68.6,30.27,ENE,58,0.0,0.0,56,0.00,SCT,,0.00,WeatherDisplay:10.37,2013-08-25 19:51:00,
2013-08-25 15:52:00,86.2,68.1,30.27,ENE,66,0.0,0.0,55,0.00,SCT,,0.00,WeatherDisplay:10.37,2013-08-25 19:52:00,
2013-08-25 15:53:00,86.4,68.3,30.27,NE,43,0.0,0.0,55,0.00,SCT,,0.00,WeatherDisplay:10.37,2013-08-25 19:53:00,
2013-08-25 15:54:00,86.6,68.5,30.27,NE,43,0.0,0.0,55,0.00,SCT,,0.00,WeatherDisplay:10.37,2013-08-25 19:54:00,
2013-08-25 15:56:00,87.0,68.9,30.27,NE,43,0.0,0.0,55,0.00,SCT,,0.00,WeatherDisplay:10.37,2013-08-25 19:56:00,
2013-08-25 15:57:00,87.0,68.3,30.27,NNE,12,0.0,0.0,54,0.00,SCT,,0.00,WeatherDisplay:10.37,2013-08-25 19:57:00,
2013-08-25 15:58:00,87.2,68.0,30.27,NNE,29,0.0,0.0,53,0.00,SCT,,0.00,WeatherDisplay:10.37,2013-08-25 19:58:00,
2013-08-25 15:59:00,87.2,68.0,30.27,NNE,32,0.0,0.0,53,0.00,SCT,,0.00,WeatherDisplay:10.37,2013-08-25 19:59:00,
2013-08-25 16:02:00,87.3,67.5,30.27,North,8,0.0,0.0,52,0.00,SCT,,0.00,WeatherDisplay:10.37,2013-08-25 20:02:00,
2013-08-25 16:04:00,87.4,68.7,30.27,East,91,0.0,0.0,54,0.00,SCT,,0.00,WeatherDisplay:10.37,2013-08-25 20:04:00,
2013-08-25 16:07:00,87.9,70.2,30.26,East,96,0.0,0.0,56,0.00,SCT,,0.00,WeatherDisplay:10.37,2013-08-25 20:07:00,
2013-08-25 16:09:00,88.1,68.3,30.26,ESE,107,5.6,9.2,52,0.00,SCT,,0.00,WeatherDisplay:10.37,2013-08-25 20:09:00,
2013-08-25 16:12:00,88.3,66.7,30.26,ENE,78,2.9,5.0,49,0.00,SCT,,0.00,WeatherDisplay:10.37,2013-08-25 20:12:00,
2013-08-25 16:13:00,88.4,67.4,30.26,ENE,67,4.1,5.8,50,0.00,SCT,,0.00,WeatherDisplay:10.37,2013-08-25 20:13:00,
2013-08-25 16:14:00,88.5,67.5,30.26,East,79,4.0,5.0,50,0.00,SCT,,0.00,WeatherDisplay:10.37,2013-08-25 20:14:00,
2013-08-25 16:15:00,88.5,67.5,30.26,East,95,3.7,5.8,50,0.00,SCT,,0.00,WeatherDisplay:10.37,2013-08-25 20:15:00,
2013-08-25 16:17:00,88.6,67.6,30.26,ENE,58,1.6,4.0,50,0.00,SCT,,0.00,WeatherDisplay:10.37,2013-08-25 20:17:00,
2013-08-25 16:18:00,88.4,68.0,30.26,ENE,77,2.7,4.0,51,0.00,SCT,,0.00,WeatherDisplay:10.37,2013-08-25 20:18:00,
2013-08-25 16:19:00,88.2,67.8,30.26,NE,35,0.4,3.5,51,0.00,SCT,,0.00,WeatherDisplay:10.37,2013-08-25 20:19:00,
2013-08-25 16:20:00,88.5,67.5,30.26,North,359,0.1,1.1,50,0.00,SCT,,0.00,WeatherDisplay:10.37,2013-08-25 20:20:00,
2013-08-25 16:22:00,88.2,68.4,30.26,East,87,0.4,3.5,52,0.00,SCT,,0.00,WeatherDisplay:10.37,2013-08-25 20:22:00,
2013-08-25 16:23:00,88.2,69.5,30.26,ENE,68,1.5,4.6,54,0.00,SCT,,0.00,WeatherDisplay:10.37,2013-08-25 20:23:00,
2013-08-25 16:24:00,88.3,69.5,30.26,ENE,71,1.8,4.6,54,0.00,SCT,,0.00,WeatherDisplay:10.37,2013-08-25 20:24:00,
2013-08-25 16:25:00,88.4,69.6,30.26,ENE,72,3.6,4.6,54,0.00,SCT,,0.00,WeatherDisplay:10.37,2013-08-25 20:25:00,
2013-08-25 16:27:00,88.6,69.3,30.26,NE,52,1.3,3.5,53,0.00,SCT,,0.00,WeatherDisplay:10.37,2013-08-25 20:27:00,
2013-08-25 16:28:00,88.8,68.9,30.26,NNE,21,1.6,3.5,52,0.00,SCT,,0.00,WeatherDisplay:10.37,2013-08-25 20:28:00,
2013-08-25 16:29:00,88.9,69.6,30.26,NNE,30,0.1,3.5,53,0.00,SCT,,0.00,WeatherDisplay:10.37,2013-08-25 20:29:00,
2013-08-25 16:30:00,88.9,70.1,30.26,NE,44,0.0,0.0,54,0.00,SCT,,0.00,WeatherDisplay:10.37,2013-08-25 20:30:00,
2013-08-25 16:32:00,88.8,66.6,30.26,NNW,340,4.1,5.8,48,0.00,SCT,,0.00,WeatherDisplay:10.37,2013-08-25 20:32:00,
2013-08-25 16:33:00,88.4,66.2,30.26,NNW,343,2.1,4.6,48,0.00,SCT,,0.00,WeatherDisplay:10.37,2013-08-25 20:33:00,
2013-08-25 16:35:00,88.3,69.5,30.26,North,355,0.0,0.0,54,0.00,SCT,,0.00,WeatherDisplay:10.37,2013-08-25 20:35:00,
2013-08-25 16:37:00,88.4,69.6,30.26,ENE,59,1.4,3.0,54,0.00,SCT,,0.00,WeatherDisplay:10.37,2013-08-25 20:37:00,
2013-08-25 16:38:00,88.4,69.1,30.26,East,85,2.7,4.6,53,0.00,SCT,,0.00,WeatherDisplay:10.37,2013-08-25 20:38:00,
2013-08-25 16:39:00,88.5,68.6,30.26,East,83,1.9,3.5,52,0.00,SCT,,0.00,WeatherDisplay:10.37,2013-08-25 20:39:00,
2013-08-25 16:40:00,88.6,68.7,30.26,NE,51,0.8,3.5,52,0.00,SCT,,0.00,WeatherDisplay:10.37,2013-08-25 20:40:00,
2013-08-25 16:41:00,88.6,68.2,30.26,NE,46,1.0,3.5,51,0.00,SCT,,0.00,WeatherDisplay:10.37,2013-08-25 20:41:00,
2013-08-25 16:42:00,88.6,68.7,30.26,East,85,0.8,3.5,52,0.00,SCT,,0.00,WeatherDisplay:10.37,2013-08-25 20:42:00,
2013-08-25 16:43:00,88.7,68.2,30.26,East,85,0.0,0.0,51,0.00,SCT,,0.00,WeatherDisplay:10.37,2013-08-25 20:43:00,
2013-08-25 16:44:00,88.7,68.2,30.26,ENE,60,0.1,2.3,51,0.00,SCT,,0.00,WeatherDisplay:10.37,2013-08-25 20:44:00,
2013-08-25 16:45:00,88.7,68.2,30.26,East,83,0.0,2.3,51,0.00,SCT,,0.00,WeatherDisplay:10.37,2013-08-25 20:45:00,
2013-08-25 16:46:00,88.7,68.2,30.26,East,92,0.4,3.5,51,0.00,SCT,,0.00,WeatherDisplay:10.37,2013-08-25 20:46:00,
2013-08-25 16:47:00,88.8,68.9,30.26,SE,125,1.6,4.6,52,0.00,SCT,,0.00,WeatherDisplay:10.37,2013-08-25 20:47:00,
2013-08-25 16:48:00,88.9,69.0,30.26,East,100,1.1,3.5,52,0.00,SCT,,0.00,WeatherDisplay:10.37,2013-08-25 20:48:00,
2013-08-25 16:49:00,89.0,69.1,30.26,ESE,107,0.0,3.5,52,0.00,SCT,,0.00,WeatherDisplay:10.37,2013-08-25 20:49:00,
2013-08-25 16:50:00,89.0,69.1,30.26,ESE,119,1.0,2.3,52,0.00,SCT,,0.00,WeatherDisplay:10.37,2013-08-25 20:50:00,
2013-08-25 16:51:00,89.1,68.6,30.26,NE,48,0.7,3.5,51,0.00,SCT,,0.00,WeatherDisplay:10.37,2013-08-25 20:51:00,
2013-08-25 16:52:00,89.0,68.5,30.26,NE,48,0.0,3.5,51,0.00,SCT,,0.00,WeatherDisplay:10.37,2013-08-25 20:52:00,
2013-08-25 16:53:00,89.0,68.5,30.26,NE,52,0.0,0.0,51,0.00,SCT,,0.00,WeatherDisplay:10.37,2013-08-25 20:53:00,
2013-08-25 16:54:00,89.1,69.2,30.26,ENE,71,0.0,0.0,52,0.00,SCT,,0.00,WeatherDisplay:10.37,2013-08-25 20:54:00,
2013-08-25 16:56:00,89.1,68.6,30.26,ENE,71,0.0,0.0,51,0.00,SCT,,0.00,WeatherDisplay:10.37,2013-08-25 20:56:00,
2013-08-25 16:57:00,89.1,68.0,30.26,ENE,73,1.5,4.6,50,0.00,SCT,,0.00,WeatherDisplay:10.37,2013-08-25 20:57:00,
2013-08-25 16:58:00,89.1,68.0,30.26,ENE,77,0.9,4.6,50,0.00,SCT,,0.00,WeatherDisplay:10.37,2013-08-25 20:58:00,
2013-08-25 16:59:00,89.1,68.6,30.26,ENE,76,0.8,3.5,51,0.00,SCT,,0.00,WeatherDisplay:10.37,2013-08-25 20:59:00,
2013-08-25 17:01:00,89.1,68.6,30.26,ENE,76,0.0,0.0,51,0.00,SCT,,0.00,WeatherDisplay:10.37,2013-08-25 21:01:00,
2013-08-25 17:02:00,89.1,68.6,30.26,ENE,76,0.0,0.0,51,0.00,SCT,,0.00,WeatherDisplay:10.37,2013-08-25 21:02:00,
2013-08-25 17:04:00,89.2,69.3,30.26,ENE,70,0.6,3.5,52,0.00,SCT,,0.00,WeatherDisplay:10.37,2013-08-25 21:04:00,
2013-08-25 17:06:00,89.3,68.2,30.25,NNE,29,0.6,0.0,50,0.00,SCT,,0.00,WeatherDisplay:10.37,2013-08-25 21:06:00,
2013-08-25 17:07:00,89.3,68.2,30.26,NE,55,1.0,4.0,50,0.00,SCT,,0.00,WeatherDisplay:10.37,2013-08-25 21:07:00,
2013-08-25 17:08:00,89.3,68.2,30.26,NE,56,1.5,4.6,50,0.00,SCT,,0.00,WeatherDisplay:10.37,2013-08-25 21:08:00,
2013-08-25 17:09:00,89.2,66.3,30.26,NNE,20,1.4,4.6,47,0.00,SCT,,0.00,WeatherDisplay:10.37,2013-08-25 21:09:00,
2013-08-25 17:12:00,88.8,67.8,30.26,ENE,75,0.0,0.0,50,0.00,SCT,,0.00,WeatherDisplay:10.37,2013-08-25 21:12:00,
2013-08-25 17:13:00,88.8,67.8,30.26,NE,34,0.0,0.0,50,0.00,SCT,,0.00,WeatherDisplay:10.37,2013-08-25 21:13:00,
2013-08-25 17:15:00,88.6,67.0,30.26,NE,41,0.6,3.5,49,0.00,SCT,,0.00,WeatherDisplay:10.37,2013-08-25 21:15:00,
2013-08-25 17:17:00,88.5,67.5,30.26,NE,43,0.0,3.5,50,0.00,SCT,,0.00,WeatherDisplay:10.37,2013-08-25 21:17:00,
2013-08-25 17:18:00,88.5,68.1,30.26,NE,43,0.0,0.0,51,0.00,SCT,,0.00,WeatherDisplay:10.37,2013-08-25 21:18:00,
2013-08-25 17:20:00,88.5,68.1,30.26,NE,45,0.5,1.0,51,0.00,SCT,,0.00,WeatherDisplay:10.37,2013-08-25 21:20:00,
2013-08-25 17:22:00,88.4,67.4,30.26,NE,46,0.0,0.0,50,0.00,SCT,,0.00,WeatherDisplay:10.37,2013-08-25 21:22:00,
2013-08-25 17:23:00,88.4,68.0,30.26,NE,56,1.5,4.0,51,0.00,SCT,,0.00,WeatherDisplay:10.37,2013-08-25 21:23:00,
2013-08-25 17:25:00,88.4,68.0,30.26,NE,54,0.0,3.5,51,0.00,SCT,,0.00,WeatherDisplay:10.37,2013-08-25 21:25:00,
2013-08-25 17:27:00,88.5,66.3,30.26,North,351,0.0,0.0,48,0.00,SCT,,0.00,WeatherDisplay:10.37,2013-08-25 21:27:00,
2013-08-25 17:29:00,88.3,66.7,30.26,North,351,0.0,0.0,49,0.00,SCT,,0.00,WeatherDisplay:10.37,2013-08-25 21:29:00,
2013-08-25 17:30:00,88.2,66.6,30.26,North,351,0.0,0.0,49,0.00,SCT,,0.00,WeatherDisplay:10.37,2013-08-25 21:30:00,
2013-08-25 17:31:00,88.1,66.5,30.26,North,351,0.0,0.0,49,0.00,SCT,,0.00,WeatherDisplay:10.37,2013-08-25 21:31:00,
2013-08-25 17:32:00,88.0,67.6,30.26,ENE,61,0.0,0.0,51,0.00,SCT,,0.00,WeatherDisplay:10.37,2013-08-25 21:32:00,
2013-08-25 17:34:00,88.1,67.7,30.26,ESE,105,2.5,4.6,51,0.00,SCT,,0.00,WeatherDisplay:10.37,2013-08-25 21:34:00,
2013-08-25 17:35:00,88.2,67.8,30.26,ESE,107,1.5,3.5,51,0.00,SCT,,0.00,WeatherDisplay:10.37,2013-08-25 21:35:00,
2013-08-25 17:36:00,88.3,67.9,30.26,ESE,107,0.0,3.5,51,0.00,SCT,,0.00,WeatherDisplay:10.37,2013-08-25 21:36:00,
2013-08-25 17:37:00,88.3,67.9,30.26,ENE,77,0.3,5.0,51,0.00,SCT,,0.00,WeatherDisplay:10.37,2013-08-25 21:37:00,
2013-08-25 17:40:00,88.6,68.2,30.26,ENE,65,0.0,2.3,51,0.00,SCT,,0.00,WeatherDisplay:10.37,2013-08-25 21:40:00,
2013-08-25 17:41:00,88.6,68.7,30.26,ENE,62,0.0,0.0,52,0.00,SCT,,0.00,WeatherDisplay:10.37,2013-08-25 21:41:00,
2013-08-25 17:42:00,88.6,68.2,30.26,ENE,63,0.0,0.0,51,0.00,SCT,,0.00,WeatherDisplay:10.37,2013-08-25 21:42:00,
2013-08-25 17:43:00,88.6,68.2,30.26,ENE,63,0.0,0.0,51,0.00,SCT,,0.00,WeatherDisplay:10.37,2013-08-25 21:43:00,
2013-08-25 17:45:00,88.7,68.2,30.26,ENE,78,0.1,3.5,51,0.00,SCT,,0.00,WeatherDisplay:10.37,2013-08-25 21:45:00,
2013-08-25 17:47:00,88.8,68.3,30.26,East,85,0.0,0.0,51,0.00,SCT,,0.00,WeatherDisplay:10.37,2013-08-25 21:47:00,
2013-08-25 17:48:00,88.8,67.8,30.26,East,85,0.0,0.0,50,0.00,SCT,,0.00,WeatherDisplay:10.37,2013-08-25 21:48:00,
2013-08-25 17:50:00,88.6,67.6,30.26,East,79,0.4,0.0,50,0.00,SCT,,0.00,WeatherDisplay:10.37,2013-08-25 21:50:00,
2013-08-25 17:52:00,88.6,66.4,30.26,North,8,0.5,5.8,48,0.00,SCT,,0.00,WeatherDisplay:10.37,2013-08-25 21:52:00,
2013-08-25 17:53:00,88.6,67.0,30.26,North,0,0.4,2.3,49,0.00,SCT,,0.00,WeatherDisplay:10.37,2013-08-25 21:53:00,
2013-08-25 17:55:00,88.6,66.4,30.26,NE,49,1.3,4.6,48,0.00,SCT,,0.00,WeatherDisplay:10.37,2013-08-25 21:55:00,
2013-08-25 17:57:00,88.6,67.0,30.26,NE,54,0.0,1.1,49,0.00,SCT,,0.00,WeatherDisplay:10.37,2013-08-25 21:57:00,
2013-08-25 17:58:00,88.6,67.0,30.26,ENE,64,2.6,3.5,49,0.00,SCT,,0.00,WeatherDisplay:10.37,2013-08-25 21:58:00,
2013-08-25 18:00:00,88.7,67.1,30.26,NE,52,1.7,3.5,49,0.00,SCT,,0.00,WeatherDisplay:10.37,2013-08-25 22:00:00,
2013-08-25 18:01:00,88.7,67.1,30.26,NE,52,1.8,3.5,49,0.00,SCT,,0.00,WeatherDisplay:10.37,2013-08-25 22:01:00,
2013-08-25 18:02:00,88.7,66.5,30.26,NE,54,0.7,3.5,48,0.00,SCT,,0.00,WeatherDisplay:10.37,2013-08-25 22:02:00,
2013-08-25 18:03:00,88.7,66.5,30.26,NE,54,0.0,0.0,48,0.00,SCT,,0.00,WeatherDisplay:10.37,2013-08-25 22:03:00,
2013-08-25 18:05:00,88.8,67.8,30.26,NE,54,0.0,0.0,50,0.00,SCT,,0.00,WeatherDisplay:10.37,2013-08-25 22:05:00,
2013-08-25 18:06:00,88.8,67.8,30.26,NE,34,0.1,1.0,50,0.00,SCT,,0.00,WeatherDisplay:10.37,2013-08-25 22:06:00,
2013-08-25 18:07:00,88.8,67.8,30.26,NE,39,0.0,3.5,50,0.00,SCT,,0.00,WeatherDisplay:10.37,2013-08-25 22:07:00,
2013-08-25 18:08:00,88.8,68.3,30.26,NE,39,0.7,1.1,51,0.00,SCT,,0.00,WeatherDisplay:10.37,2013-08-25 22:08:00,
2013-08-25 18:11:00,88.7,67.7,30.26,NE,38,0.0,0.0,50,0.00,SCT,,0.00,WeatherDisplay:10.37,2013-08-25 22:11:00,
2013-08-25 18:12:00,88.6,66.4,30.26,NE,39,0.0,0.0,48,0.00,SCT,,0.00,WeatherDisplay:10.37,2013-08-25 22:12:00,
2013-08-25 18:14:00,88.5,67.5,30.26,NE,39,0.0,0.0,50,0.00,SCT,,0.00,WeatherDisplay:10.37,2013-08-25 22:14:00,
2013-08-25 18:16:00,88.4,66.8,30.26,ENE,65,0.0,0.0,49,0.00,SCT,,0.00,WeatherDisplay:10.37,2013-08-25 22:16:00,
2013-08-25 18:18:00,88.3,67.9,30.26,ESE,104,1.6,7.0,51,0.00,SCT,,0.00,WeatherDisplay:10.37,2013-08-25 22:18:00,
2013-08-25 18:19:00,88.2,67.2,30.26,East,91,3.1,6.9,50,0.00,SCT,,0.00,WeatherDisplay:10.37,2013-08-25 22:19:00,
2013-08-25 18:21:00,88.2,66.0,30.26,ENE,78,5.4,5.8,48,0.00,SCT,,0.00,WeatherDisplay:10.37,2013-08-25 22:21:00,
2013-08-25 18:23:00,88.1,66.5,30.26,East,84,2.4,3.5,49,0.00,SCT,,0.00,WeatherDisplay:10.37,2013-08-25 22:23:00,
2013-08-25 18:24:00,88.0,66.4,30.26,East,99,4.3,6.0,49,0.00,SCT,,0.00,WeatherDisplay:10.37,2013-08-25 22:24:00,
2013-08-25 18:26:00,87.9,65.8,30.26,East,83,4.8,5.8,48,0.00,SCT,,0.00,WeatherDisplay:10.37,2013-08-25 22:26:00,
2013-08-25 18:27:00,87.9,65.8,30.26,ENE,78,5.3,8.1,48,0.00,SCT,,0.00,WeatherDisplay:10.37,2013-08-25 22:27:00,
2013-08-25 18:28:00,87.9,65.8,30.26,ENE,68,4.4,6.0,48,0.00,SCT,,0.00,WeatherDisplay:10.37,2013-08-25 22:28:00,
2013-08-25 18:29:00,87.8,65.7,30.26,ENE,69,2.2,6.9,48,0.00,SCT,,0.00,WeatherDisplay:10.37,2013-08-25 22:29:00,
2013-08-25 18:31:00,87.7,65.6,30.26,ENE,78,1.5,3.5,48,0.00,SCT,,0.00,WeatherDisplay:10.37,2013-08-25 22:31:00,
2013-08-25 18:32:00,87.7,66.2,30.26,East,83,1.1,3.5,49,0.00,SCT,,0.00,WeatherDisplay:10.37,2013-08-25 22:32:00,
2013-08-25 18:33:00,87.6,66.1,30.26,NE,56,0.0,0.0,49,0.00,SCT,,0.00,WeatherDisplay:10.37,2013-08-25 22:33:00,
2013-08-25 18:34:00,87.5,65.4,30.26,East,81,0.9,0.0,48,0.00,SCT,,0.00,WeatherDisplay:10.37,2013-08-25 22:34:00,
2013-08-25 18:35:00,87.5,66.0,30.26,East,82,0.9,3.5,49,0.00,SCT,,0.00,WeatherDisplay:10.37,2013-08-25 22:35:00,
2013-08-25 18:36:00,87.4,66.5,30.26,ENE,72,0.0,0.0,50,0.00,SCT,,0.00,WeatherDisplay:10.37,2013-08-25 22:36:00,
2013-08-25 18:37:00,87.4,65.9,30.26,NE,48,1.0,2.0,49,0.00,SCT,,0.00,WeatherDisplay:10.37,2013-08-25 22:37:00,
2013-08-25 18:39:00,87.3,65.8,30.25,ENE,57,0.0,0.0,49,0.00,SCT,,0.00,WeatherDisplay:10.37,2013-08-25 22:39:00,
2013-08-25 18:40:00,87.1,65.6,30.25,East,79,1.9,4.6,49,0.00,SCT,,0.00,WeatherDisplay:10.37,2013-08-25 22:40:00,
2013-08-25 18:42:00,87.0,66.7,30.26,East,79,0.0,0.0,51,0.00,SCT,,0.00,WeatherDisplay:10.37,2013-08-25 22:42:00,
2013-08-25 18:44:00,87.0,66.7,30.26,ENE,77,0.0,0.0,51,0.00,SCT,,0.00,WeatherDisplay:10.37,2013-08-25 22:44:00,
2013-08-25 18:45:00,86.9,66.6,30.26,ENE,77,0.0,0.0,51,0.00,SCT,,0.00,WeatherDisplay:10.37,2013-08-25 22:45:00,
2013-08-25 18:47:00,86.8,65.9,30.26,ENE,77,0.0,0.0,50,0.00,SCT,,0.00,WeatherDisplay:10.37,2013-08-25 22:47:00,
2013-08-25 18:48:00,86.8,65.9,30.26,ENE,77,0.0,0.0,50,0.00,SCT,,0.00,WeatherDisplay:10.37,2013-08-25 22:48:00,
2013-08-25 18:49:00,86.8,66.5,30.26,ENE,77,0.5,0.0,51,0.00,SCT,,0.00,WeatherDisplay:10.37,2013-08-25 22:49:00,
2013-08-25 18:51:00,86.8,66.5,30.26,ENE,77,0.0,0.0,51,0.00,SCT,,0.00,WeatherDisplay:10.37,2013-08-25 22:51:00,
2013-08-25 18:53:00,86.7,65.8,30.26,ENE,77,0.0,0.0,50,0.00,SCT,,0.00,WeatherDisplay:10.37,2013-08-25 22:53:00,
2013-08-25 18:54:00,86.7,65.8,30.26,ENE,75,0.3,4.0,50,0.00,SCT,,0.00,WeatherDisplay:10.37,2013-08-25 22:54:00,
2013-08-25 18:55:00,86.6,65.7,30.25,ESE,102,1.6,4.6,50,0.00,SCT,,0.00,WeatherDisplay:10.37,2013-08-25 22:55:00,
2013-08-25 18:56:00,86.6,65.7,30.26,ENE,73,3.7,4.6,50,0.00,SCT,,0.00,WeatherDisplay:10.37,2013-08-25 22:56:00,
2013-08-25 18:58:00,86.6,65.7,30.26,ENE,73,0.9,3.5,50,0.00,SCT,,0.00,WeatherDisplay:10.37,2013-08-25 22:58:00,
2013-08-25 18:59:00,86.5,65.1,30.26,ENE,66,0.0,0.0,49,0.00,SCT,,0.00,WeatherDisplay:10.37,2013-08-25 22:59:00,
2013-08-25 19:00:00,86.5,65.7,30.26,ENE,66,0.0,0.0,50,0.00,SCT,,0.00,WeatherDisplay:10.37,2013-08-25 23:00:00,
2013-08-25 19:02:00,86.5,65.7,30.26,ENE,72,1.1,3.5,50,0.00,SCT,,0.00,WeatherDisplay:10.37,2013-08-25 23:02:00,
2013-08-25 19:03:00,86.4,65.6,30.26,East,88,0.6,3.5,50,0.00,SCT,,0.00,WeatherDisplay:10.37,2013-08-25 23:03:00,
2013-08-25 19:04:00,86.4,65.6,30.26,East,88,0.0,0.0,50,0.00,SCT,,0.00,WeatherDisplay:10.37,2013-08-25 23:04:00,
2013-08-25 19:05:00,86.3,66.0,30.25,East,88,0.0,0.0,51,0.00,SCT,,0.00,WeatherDisplay:10.37,2013-08-25 23:05:00,
2013-08-25 19:07:00,86.2,65.9,30.25,East,88,0.0,0.0,51,0.00,SCT,,0.00,WeatherDisplay:10.37,2013-08-25 23:07:00,
2013-08-25 19:08:00,86.2,67.1,30.25,East,88,0.0,0.0,53,0.00,SCT,,0.00,WeatherDisplay:10.37,2013-08-25 23:08:00,
2013-08-25 19:09:00,86.2,68.1,30.25,East,88,0.0,0.0,55,0.00,SCT,,0.00,WeatherDisplay:10.37,2013-08-25 23:09:00,
2013-08-25 19:10:00,86.1,67.5,30.25,East,88,0.0,0.0,54,0.00,SCT,,0.00,WeatherDisplay:10.37,2013-08-25 23:10:00,
2013-08-25 19:12:00,86.1,68.0,30.26,East,88,0.0,0.0,55,0.00,SCT,,0.00,WeatherDisplay:10.37,2013-08-25 23:12:00,
2013-08-25 19:13:00,85.9,67.3,30.26,East,88,0.0,0.0,54,0.00,SCT,,0.00,WeatherDisplay:10.37,2013-08-25 23:13:00,
2013-08-25 19:14:00,85.8,67.2,30.25,East,88,0.0,0.0,54,0.00,SCT,,0.00,WeatherDisplay:10.37,2013-08-25 23:14:00,
2013-08-25 19:15:00,85.8,67.8,30.25,East,88,0.0,0.0,55,0.00,SCT,,0.00,WeatherDisplay:10.37,2013-08-25 23:15:00,
2013-08-25 19:17:00,85.7,67.1,30.25,East,88,0.0,0.0,54,0.00,SCT,,0.00,WeatherDisplay:10.37,2013-08-25 23:17:00,
2013-08-25 19:19:00,85.6,67.6,30.25,East,88,0.0,0.0,55,0.00,SCT,,0.00,WeatherDisplay:10.37,2013-08-25 23:19:00,
2013-08-25 19:20:00,85.4,68.4,30.25,East,87,0.0,0.0,57,0.00,SCT,,0.00,WeatherDisplay:10.37,2013-08-25 23:20:00,
2013-08-25 19:22:00,85.2,67.2,30.25,East,87,0.0,0.0,55,0.00,SCT,,0.00,WeatherDisplay:10.37,2013-08-25 23:22:00,
2013-08-25 19:24:00,84.8,67.9,30.25,East,88,0.0,0.0,57,0.00,SCT,,0.00,WeatherDisplay:10.37,2013-08-25 23:24:00,
2013-08-25 19:25:00,84.5,67.6,30.25,East,88,0.0,0.0,57,0.00,SCT,,0.00,WeatherDisplay:10.37,2013-08-25 23:25:00,
2013-08-25 19:27:00,84.4,67.5,30.25,East,88,0.0,0.0,57,0.00,SCT,,0.00,WeatherDisplay:10.37,2013-08-25 23:27:00,
2013-08-25 19:30:00,83.9,67.5,30.25,East,88,0.0,0.0,58,0.00,SCT,,0.00,WeatherDisplay:10.37,2013-08-25 23:30:00,
2013-08-25 19:31:00,83.7,67.4,30.25,East,88,0.0,0.0,58,0.00,SCT,,0.00,WeatherDisplay:10.37,2013-08-25 23:31:00,
2013-08-25 19:32:00,83.7,67.4,30.25,East,88,0.0,0.0,58,0.00,SCT,,0.00,WeatherDisplay:10.37,2013-08-25 23:32:00,
2013-08-25 19:35:00,83.3,68.0,30.25,East,88,0.0,0.0,60,0.00,SCT,,0.00,WeatherDisplay:10.37,2013-08-25 23:35:00,
2013-08-25 19:36:00,83.2,67.9,30.25,East,88,0.0,0.0,60,0.00,SCT,,0.00,WeatherDisplay:10.37,2013-08-25 23:36:00,
2013-08-25 19:37:00,83.1,68.3,30.25,East,88,0.0,0.0,61,0.00,SCT,,0.00,WeatherDisplay:10.37,2013-08-25 23:37:00,
2013-08-25 19:40:00,82.7,67.9,30.25,East,88,0.0,0.0,61,0.00,SCT,,0.00,WeatherDisplay:10.37,2013-08-25 23:40:00,
2013-08-25 19:41:00,82.5,68.2,30.25,East,88,0.0,0.0,62,0.00,SCT,,0.00,WeatherDisplay:10.37,2013-08-25 23:41:00,
2013-08-25 19:42:00,82.4,68.1,30.25,East,88,0.0,0.0,62,0.00,SCT,,0.00,WeatherDisplay:10.37,2013-08-25 23:42:00,
2013-08-25 19:45:00,82.0,67.7,30.25,East,87,0.0,0.0,62,0.00,SCT,,0.00,WeatherDisplay:10.37,2013-08-25 23:45:00,
2013-08-25 19:47:00,81.8,68.0,30.25,East,88,0.0,0.0,63,0.00,SCT,,0.00,WeatherDisplay:10.37,2013-08-25 23:47:00,
2013-08-25 19:48:00,81.7,67.9,30.25,East,88,0.0,0.0,63,0.00,SCT,,0.00,WeatherDisplay:10.37,2013-08-25 23:48:00,
2013-08-25 19:51:00,81.5,67.7,30.25,East,88,0.0,0.0,63,0.00,SCT,,0.00,WeatherDisplay:10.37,2013-08-25 23:51:00,
2013-08-25 19:52:00,81.4,67.6,30.25,East,88,0.0,0.0,63,0.00,SCT,,0.00,WeatherDisplay:10.37,2013-08-25 23:52:00,
2013-08-25 19:53:00,81.4,68.1,30.25,East,88,0.0,0.0,64,0.00,SCT,,0.00,WeatherDisplay:10.37,2013-08-25 23:53:00,
2013-08-25 19:56:00,81.3,68.0,30.26,East,88,0.0,0.0,64,0.00,SCT,,0.00,WeatherDisplay:10.37,2013-08-25 23:56:00,
2013-08-25 19:57:00,81.2,68.3,30.26,East,88,0.0,0.0,65,0.00,SCT,,0.00,WeatherDisplay:10.37,2013-08-25 23:57:00,
2013-08-25 19:58:00,81.2,67.9,30.26,East,88,0.0,0.0,64,0.00,SCT,,0.00,WeatherDisplay:10.37,2013-08-25 23:58:00,
2013-08-25 20:01:00,80.5,68.1,30.26,East,88,0.0,0.0,66,0.00,SCT,,0.00,WeatherDisplay:10.37,2013-08-26 00:01:00,
2013-08-25 20:02:00,80.4,68.0,30.26,East,88,0.0,0.0,66,0.00,SCT,,0.00,WeatherDisplay:10.37,2013-08-26 00:02:00,
2013-08-25 20:03:00,80.4,68.0,30.26,East,88,0.0,0.0,66,0.00,SCT,,0.00,WeatherDisplay:10.37,2013-08-26 00:03:00,
2013-08-25 20:06:00,80.3,67.5,30.26,East,88,0.0,0.0,65,0.00,SCT,,0.00,WeatherDisplay:10.37,2013-08-26 00:06:00,
2013-08-25 20:07:00,80.2,67.8,30.26,East,87,0.0,0.0,66,0.00,SCT,,0.00,WeatherDisplay:10.37,2013-08-26 00:07:00,
2013-08-25 20:08:00,80.2,67.8,30.26,East,88,0.0,0.0,66,0.00,SCT,,0.00,WeatherDisplay:10.37,2013-08-26 00:08:00,
2013-08-25 20:09:00,80.1,67.7,30.26,East,88,0.0,0.0,66,0.00,SCT,,0.00,WeatherDisplay:10.37,2013-08-26 00:09:00,
2013-08-25 20:11:00,79.6,67.7,30.26,East,88,0.0,0.0,67,0.00,SCT,,0.00,WeatherDisplay:10.37,2013-08-26 00:11:00,
2013-08-25 20:12:00,79.6,67.7,30.26,East,88,0.0,0.0,67,0.00,SCT,,0.00,WeatherDisplay:10.37,2013-08-26 00:12:00,
2013-08-25 20:13:00,79.3,67.8,30.26,East,88,0.0,0.0,68,0.00,SCT,,0.00,WeatherDisplay:10.37,2013-08-26 00:13:00,
2013-08-25 20:14:00,79.2,67.7,30.26,East,88,0.0,0.0,68,0.00,SCT,,0.00,WeatherDisplay:10.37,2013-08-26 00:14:00,
2013-08-25 20:16:00,79.3,67.8,30.26,East,88,0.0,0.0,68,0.00,SCT,,0.00,WeatherDisplay:10.37,2013-08-26 00:16:00,
2013-08-25 20:17:00,79.3,67.8,30.26,East,88,0.0,0.0,68,0.00,SCT,,0.00,WeatherDisplay:10.37,2013-08-26 00:17:00,
2013-08-25 20:18:00,79.2,67.7,30.26,East,88,0.0,0.0,68,0.00,SCT,,0.00,WeatherDisplay:10.37,2013-08-26 00:18:00,
2013-08-25 20:19:00,79.2,67.3,30.26,East,88,0.0,0.0,67,0.00,SCT,,0.00,WeatherDisplay:10.37,2013-08-26 00:19:00,
2013-08-25 20:22:00,78.5,67.5,30.26,East,88,0.0,0.0,69,0.00,SCT,,0.00,WeatherDisplay:10.37,2013-08-26 00:22:00,
2013-08-25 20:23:00,78.7,67.7,30.26,East,88,0.0,0.0,69,0.00,SCT,,0.00,WeatherDisplay:10.37,2013-08-26 00:23:00,
2013-08-25 20:24:00,78.7,67.7,30.26,East,88,0.0,0.0,69,0.00,SCT,,0.00,WeatherDisplay:10.37,2013-08-26 00:24:00,
2013-08-25 20:27:00,78.7,67.7,30.26,East,88,0.0,0.0,69,0.00,SCT,,0.00,WeatherDisplay:10.37,2013-08-26 00:27:00,
2013-08-25 20:28:00,78.7,67.7,30.26,East,88,0.0,0.0,69,0.00,SCT,,0.00,WeatherDisplay:10.37,2013-08-26 00:28:00,
2013-08-25 20:29:00,78.7,67.7,30.26,East,87,0.0,0.0,69,0.00,SCT,,0.00,WeatherDisplay:10.37,2013-08-26 00:29:00,
2013-08-25 20:32:00,78.6,67.6,30.26,East,88,0.0,0.0,69,0.00,SCT,,0.00,WeatherDisplay:10.37,2013-08-26 00:32:00,
2013-08-25 20:33:00,78.6,67.6,30.26,East,88,0.0,0.0,69,0.00,SCT,,0.00,WeatherDisplay:10.37,2013-08-26 00:33:00,
2013-08-25 20:34:00,78.6,67.6,30.26,East,88,0.0,0.0,69,0.00,SCT,,0.00,WeatherDisplay:10.37,2013-08-26 00:34:00,
2013-08-25 20:38:00,78.0,67.0,30.26,East,88,0.0,0.0,69,0.00,SCT,,0.00,WeatherDisplay:10.37,2013-08-26 00:38:00,
2013-08-25 20:39:00,78.0,67.0,30.26,East,88,0.0,0.0,69,0.00,SCT,,0.00,WeatherDisplay:10.37,2013-08-26 00:39:00,
2013-08-25 20:40:00,78.0,67.0,30.26,East,88,0.0,0.0,69,0.00,SCT,,0.00,WeatherDisplay:10.37,2013-08-26 00:40:00,
2013-08-25 20:43:00,77.5,66.9,30.26,East,88,0.0,0.0,70,0.00,SCT,,0.00,WeatherDisplay:10.37,2013-08-26 00:43:00,
2013-08-25 20:44:00,77.1,66.6,30.26,East,88,0.0,0.0,70,0.00,SCT,,0.00,WeatherDisplay:10.37,2013-08-26 00:44:00,
2013-08-25 20:45:00,76.9,66.4,30.26,East,88,0.0,0.0,70,0.00,SCT,,0.00,WeatherDisplay:10.37,2013-08-26 00:45:00,
2013-08-25 20:48:00,75.7,65.2,30.26,East,88,0.0,0.0,70,0.00,SCT,,0.00,WeatherDisplay:10.37,2013-08-26 00:48:00,
2013-08-25 20:49:00,76.0,65.5,30.26,East,88,0.0,0.0,70,0.00,SCT,,0.00,WeatherDisplay:10.37,2013-08-26 00:49:00,
2013-08-25 20:50:00,76.1,66.0,30.26,East,88,0.0,0.0,71,0.00,SCT,,0.00,WeatherDisplay:10.37,2013-08-26 00:50:00,
2013-08-25 20:53:00,76.2,66.1,30.26,East,87,0.0,0.0,71,0.00,SCT,,0.00,WeatherDisplay:10.37,2013-08-26 00:53:00,
2013-08-25 20:54:00,76.2,66.1,30.26,East,87,0.0,0.0,71,0.00,SCT,,0.00,WeatherDisplay:10.37,2013-08-26 00:54:00,
2013-08-25 20:55:00,76.1,66.0,30.26,East,88,0.0,0.0,71,0.00,SCT,,0.00,WeatherDisplay:10.37,2013-08-26 00:55:00,
2013-08-25 20:58:00,76.1,66.0,30.26,East,88,0.0,0.0,71,0.00,SCT,,0.00,WeatherDisplay:10.37,2013-08-26 00:58:00,
2013-08-25 20:59:00,76.1,66.4,30.26,East,87,0.0,0.0,72,0.00,SCT,,0.00,WeatherDisplay:10.37,2013-08-26 00:59:00,
2013-08-25 21:00:00,76.2,66.1,30.26,East,88,0.0,0.0,71,0.00,SCT,,0.00,WeatherDisplay:10.37,2013-08-26 01:00:00,
2013-08-25 21:03:00,76.3,66.2,30.27,East,88,0.0,0.0,71,0.00,FEW,,0.00,WeatherDisplay:10.37,2013-08-26 01:03:00,
2013-08-25 21:04:00,76.3,66.2,30.27,East,88,0.0,0.0,71,0.00,FEW,,0.00,WeatherDisplay:10.37,2013-08-26 01:04:00,
2013-08-25 21:05:00,76.4,66.7,30.26,East,88,0.0,0.0,72,0.00,FEW,,0.00,WeatherDisplay:10.37,2013-08-26 01:05:00,
2013-08-25 21:06:00,76.4,66.7,30.27,East,87,0.0,0.0,72,0.00,FEW,,0.00,WeatherDisplay:10.37,2013-08-26 01:06:00,
2013-08-25 21:09:00,76.8,66.7,30.27,East,87,0.0,0.0,71,0.00,FEW,,0.00,WeatherDisplay:10.37,2013-08-26 01:09:00,
2013-08-25 21:10:00,76.7,66.6,30.27,East,88,0.0,0.0,71,0.00,FEW,,0.00,WeatherDisplay:10.37,2013-08-26 01:10:00,
2013-08-25 21:11:00,76.6,66.5,30.27,East,87,0.0,0.0,71,0.00,FEW,,0.00,WeatherDisplay:10.37,2013-08-26 01:11:00,
2013-08-25 21:14:00,76.4,66.3,30.27,East,88,0.0,0.0,71,0.00,FEW,,0.00,WeatherDisplay:10.37,2013-08-26 01:14:00,
2013-08-25 21:15:00,76.4,66.3,30.27,East,88,0.0,0.0,71,0.00,FEW,,0.00,WeatherDisplay:10.37,2013-08-26 01:15:00,
2013-08-25 21:16:00,76.4,66.3,30.27,East,88,0.0,0.0,71,0.00,FEW,,0.00,WeatherDisplay:10.37,2013-08-26 01:16:00,
2013-08-25 21:19:00,76.2,66.1,30.27,East,88,0.0,0.0,71,0.00,FEW,,0.00,WeatherDisplay:10.37,2013-08-26 01:19:00,
2013-08-25 21:20:00,76.2,66.1,30.27,East,88,0.0,0.0,71,0.00,FEW,,0.00,WeatherDisplay:10.37,2013-08-26 01:20:00,
2013-08-25 21:21:00,76.2,66.1,30.27,East,88,0.0,0.0,71,0.00,FEW,,0.00,WeatherDisplay:10.37,2013-08-26 01:21:00,
2013-08-25 21:25:00,76.1,65.6,30.27,East,88,0.0,0.0,70,0.00,FEW,,0.00,WeatherDisplay:10.37,2013-08-26 01:25:00,
2013-08-25 21:26:00,76.1,65.6,30.27,East,88,0.0,0.0,70,0.00,FEW,,0.00,WeatherDisplay:10.37,2013-08-26 01:26:00,
2013-08-25 21:30:00,75.9,65.8,30.27,East,88,0.0,0.0,71,0.00,FEW,,0.00,WeatherDisplay:10.37,2013-08-26 01:30:00,
2013-08-25 21:31:00,75.9,65.8,30.27,East,88,0.0,0.0,71,0.00,FEW,,0.00,WeatherDisplay:10.37,2013-08-26 01:31:00,
2013-08-25 21:32:00,75.9,65.8,30.27,East,88,0.0,0.0,71,0.00,FEW,,0.00,WeatherDisplay:10.37,2013-08-26 01:32:00,
2013-08-25 21:35:00,75.8,65.7,30.27,East,88,0.0,0.0,71,0.00,FEW,,0.00,WeatherDisplay:10.37,2013-08-26 01:35:00,
2013-08-25 21:36:00,75.8,65.7,30.27,East,88,0.0,0.0,71,0.00,FEW,,0.00,WeatherDisplay:10.37,2013-08-26 01:36:00,
2013-08-25 21:37:00,75.7,65.6,30.27,East,88,0.0,0.0,71,0.00,FEW,,0.00,WeatherDisplay:10.37,2013-08-26 01:37:00,
2013-08-25 21:41:00,75.5,65.8,30.27,East,88,0.0,0.0,72,0.00,FEW,,0.00,WeatherDisplay:10.37,2013-08-26 01:41:00,
2013-08-25 21:42:00,75.4,65.7,30.27,East,88,0.0,0.0,72,0.00,FEW,,0.00,WeatherDisplay:10.37,2013-08-26 01:42:00,
2013-08-25 21:46:00,75.2,65.6,30.27,East,88,0.0,0.0,72,0.00,FEW,,0.00,WeatherDisplay:10.37,2013-08-26 01:46:00,
2013-08-25 21:47:00,75.1,65.5,30.27,East,88,0.0,0.0,72,0.00,FEW,,0.00,WeatherDisplay:10.37,2013-08-26 01:47:00,
2013-08-25 21:51:00,74.9,65.3,30.28,East,87,0.0,0.0,72,0.00,FEW,,0.00,WeatherDisplay:10.37,2013-08-26 01:51:00,
2013-08-25 21:52:00,74.9,65.7,30.28,East,88,0.0,0.0,73,0.00,FEW,,0.00,WeatherDisplay:10.37,2013-08-26 01:52:00,
2013-08-25 21:56:00,74.9,65.7,30.28,East,88,0.0,0.0,73,0.00,FEW,,0.00,WeatherDisplay:10.37,2013-08-26 01:56:00,
2013-08-25 21:57:00,74.9,65.7,30.28,East,88,0.0,0.0,73,0.00,FEW,,0.00,WeatherDisplay:10.37,2013-08-26 01:57:00,
2013-08-25 22:02:00,74.7,65.5,30.28,East,88,0.0,0.0,73,0.00,FEW,,0.00,WeatherDisplay:10.37,2013-08-26 02:02:00,
2013-08-25 22:03:00,74.7,65.5,30.28,East,88,0.0,0.0,73,0.00,FEW,,0.00,WeatherDisplay:10.37,2013-08-26 02:03:00,
2013-08-25 22:07:00,74.7,65.5,30.28,East,88,0.0,0.0,73,0.00,FEW,,0.00,WeatherDisplay:10.37,2013-08-26 02:07:00,
2013-08-25 22:08:00,74.7,65.5,30.28,East,88,0.0,0.0,73,0.00,FEW,,0.00,WeatherDisplay:10.37,2013-08-26 02:08:00,
2013-08-25 22:12:00,74.6,65.4,30.28,East,87,0.0,0.0,73,0.00,FEW,,0.00,WeatherDisplay:10.37,2013-08-26 02:12:00,
2013-08-25 22:13:00,74.6,65.4,30.27,East,87,0.0,0.0,73,0.00,FEW,,0.00,WeatherDisplay:10.37,2013-08-26 02:13:00,
2013-08-25 22:17:00,74.3,65.1,30.28,East,88,0.0,0.0,73,0.00,FEW,,0.00,WeatherDisplay:10.37,2013-08-26 02:17:00,
2013-08-25 22:18:00,74.2,65.0,30.28,East,88,0.0,0.0,73,0.00,FEW,,0.00,WeatherDisplay:10.37,2013-08-26 02:18:00,
2013-08-25 22:22:00,74.0,64.8,30.28,East,87,0.0,0.0,73,0.00,FEW,,0.00,WeatherDisplay:10.37,2013-08-26 02:22:00,
2013-08-25 22:23:00,74.0,64.8,30.28,East,88,0.0,0.0,73,0.00,FEW,,0.00,WeatherDisplay:10.37,2013-08-26 02:23:00,
2013-08-25 22:28:00,73.8,65.0,30.29,East,87,0.0,0.0,74,0.00,FEW,,0.00,WeatherDisplay:10.37,2013-08-26 02:28:00,
2013-08-25 22:33:00,73.7,64.9,30.28,East,88,0.0,0.0,74,0.00,FEW,,0.00,WeatherDisplay:10.37,2013-08-26 02:33:00,
2013-08-25 22:38:00,73.7,64.9,30.28,East,87,0.0,0.0,74,0.00,FEW,,0.00,WeatherDisplay:10.37,2013-08-26 02:38:00,
2013-08-25 22:39:00,73.6,64.8,30.28,East,88,0.0,0.0,74,0.00,FEW,,0.00,WeatherDisplay:10.37,2013-08-26 02:39:00,
2013-08-25 22:43:00,73.5,64.7,30.28,East,87,0.0,0.0,74,0.00,FEW,,0.00,WeatherDisplay:10.37,2013-08-26 02:43:00,
2013-08-25 22:44:00,73.5,64.7,30.28,East,88,0.0,0.0,74,0.00,FEW,,0.00,WeatherDisplay:10.37,2013-08-26 02:44:00,
2013-08-25 22:48:00,73.3,64.9,30.28,East,88,0.0,0.0,75,0.00,FEW,,0.00,WeatherDisplay:10.37,2013-08-26 02:48:00,
2013-08-25 22:49:00,73.3,64.5,30.28,East,88,0.0,0.0,74,0.00,FEW,,0.00,WeatherDisplay:10.37,2013-08-26 02:49:00,
2013-08-25 22:53:00,73.2,64.8,30.29,East,87,0.0,0.0,75,0.00,FEW,,0.00,WeatherDisplay:10.37,2013-08-26 02:53:00,
2013-08-25 22:54:00,73.2,64.8,30.29,East,88,0.0,0.0,75,0.00,FEW,,0.00,WeatherDisplay:10.37,2013-08-26 02:54:00,
2013-08-25 22:58:00,73.0,64.2,30.29,East,87,0.0,0.0,74,0.00,FEW,,0.00,WeatherDisplay:10.37,2013-08-26 02:58:00,
2013-08-25 22:59:00,73.0,64.2,30.29,East,87,0.0,0.0,74,0.00,FEW,,0.00,WeatherDisplay:10.37,2013-08-26 02:59:00,
2013-08-25 23:03:00,72.8,64.4,30.29,East,88,0.0,0.0,75,0.00,SCT,,0.00,WeatherDisplay:10.37,2013-08-26 03:03:00,
2013-08-25 23:04:00,72.8,64.4,30.29,East,88,0.0,0.0,75,0.00,SCT,,0.00,WeatherDisplay:10.37,2013-08-26 03:04:00,
2013-08-25 23:05:00,72.8,64.4,30.29,East,88,0.0,0.0,75,0.00,SCT,,0.00,WeatherDisplay:10.37,2013-08-26 03:05:00,
2013-08-25 23:08:00,72.7,64.3,30.29,East,88,0.0,0.0,75,0.00,SCT,,0.00,WeatherDisplay:10.37,2013-08-26 03:08:00,
2013-08-25 23:09:00,72.7,64.3,30.29,East,87,0.0,0.0,75,0.00,SCT,,0.00,WeatherDisplay:10.37,2013-08-26 03:09:00,
2013-08-25 23:10:00,72.7,64.3,30.29,East,87,0.0,0.0,75,0.00,SCT,,0.00,WeatherDisplay:10.37,2013-08-26 03:10:00,
2013-08-25 23:13:00,72.5,64.1,30.29,East,87,0.0,0.0,75,0.00,SCT,,0.00,WeatherDisplay:10.37,2013-08-26 03:13:00,
2013-08-25 23:14:00,72.5,64.5,30.29,East,88,0.0,0.0,76,0.00,SCT,,0.00,WeatherDisplay:10.37,2013-08-26 03:14:00,
2013-08-25 23:15:00,72.5,64.5,30.29,East,87,0.0,0.0,76,0.00,SCT,,0.00,WeatherDisplay:10.37,2013-08-26 03:15:00,
2013-08-25 23:16:00,72.4,64.4,30.29,East,88,0.0,0.0,76,0.00,SCT,,0.00,WeatherDisplay:10.37,2013-08-26 03:16:00,
2013-08-25 23:19:00,72.3,64.3,30.29,East,88,0.0,0.0,76,0.00,SCT,,0.00,WeatherDisplay:10.37,2013-08-26 03:19:00,
2013-08-25 23:20:00,72.3,64.3,30.29,East,87,0.0,0.0,76,0.00,SCT,,0.00,WeatherDisplay:10.37,2013-08-26 03:20:00,
2013-08-25 23:21:00,72.3,64.3,30.29,East,88,0.0,0.0,76,0.00,SCT,,0.00,WeatherDisplay:10.37,2013-08-26 03:21:00,
2013-08-25 23:24:00,72.3,64.3,30.29,East,87,0.0,0.0,76,0.00,SCT,,0.00,WeatherDisplay:10.37,2013-08-26 03:24:00,
2013-08-25 23:25:00,72.2,64.2,30.29,East,87,0.0,0.0,76,0.00,SCT,,0.00,WeatherDisplay:10.37,2013-08-26 03:25:00,
2013-08-25 23:26:00,72.2,64.2,30.29,East,88,0.0,0.0,76,0.00,SCT,,0.00,WeatherDisplay:10.37,2013-08-26 03:26:00,
2013-08-25 23:29:00,72.1,64.1,30.29,East,88,0.0,0.0,76,0.00,SCT,,0.00,WeatherDisplay:10.37,2013-08-26 03:29:00,
2013-08-25 23:30:00,72.0,64.0,30.29,East,88,0.0,0.0,76,0.00,SCT,,0.00,WeatherDisplay:10.37,2013-08-26 03:30:00,
2013-08-25 23:31:00,72.0,64.0,30.29,East,88,0.0,0.0,76,0.00,SCT,,0.00,WeatherDisplay:10.37,2013-08-26 03:31:00,
2013-08-25 23:34:00,71.8,64.2,30.29,East,87,0.0,0.0,77,0.00,SCT,,0.00,WeatherDisplay:10.37,2013-08-26 03:34:00,
2013-08-25 23:35:00,71.7,64.1,30.29,East,87,0.0,0.0,77,0.00,SCT,,0.00,WeatherDisplay:10.37,2013-08-26 03:35:00,
2013-08-25 23:36:00,71.7,64.1,30.29,East,87,0.0,0.0,77,0.00,SCT,,0.00,WeatherDisplay:10.37,2013-08-26 03:36:00,
2013-08-25 23:39:00,71.7,64.1,30.29,East,88,0.0,0.0,77,0.00,SCT,,0.00,WeatherDisplay:10.37,2013-08-26 03:39:00,
2013-08-25 23:40:00,71.7,64.1,30.29,East,88,0.0,0.0,77,0.00,SCT,,0.00,WeatherDisplay:10.37,2013-08-26 03:40:00,
2013-08-25 23:41:00,71.8,64.2,30.29,East,88,0.0,0.0,77,0.00,SCT,,0.00,WeatherDisplay:10.37,2013-08-26 03:41:00,
2013-08-25 23:44:00,71.7,64.1,30.29,East,88,0.0,0.0,77,0.00,SCT,,0.00,WeatherDisplay:10.37,2013-08-26 03:44:00,
2013-08-25 23:45:00,71.6,63.6,30.29,East,87,0.0,0.0,76,0.00,SCT,,0.00,WeatherDisplay:10.37,2013-08-26 03:45:00,
2013-08-25 23:46:00,71.6,63.6,30.29,East,88,0.0,0.0,76,0.00,SCT,,0.00,WeatherDisplay:10.37,2013-08-26 03:46:00,
2013-08-25 23:47:00,71.5,63.9,30.29,East,88,0.0,0.0,77,0.00,SCT,,0.00,WeatherDisplay:10.37,2013-08-26 03:47:00,
2013-08-25 23:49:00,71.5,63.9,30.30,East,88,0.0,0.0,77,0.00,SCT,,0.00,WeatherDisplay:10.37,2013-08-26 03:49:00,
2013-08-25 23:50:00,71.5,63.9,30.30,East,87,0.0,0.0,77,0.00,SCT,,0.00,WeatherDisplay:10.37,2013-08-26 03:50:00,
2013-08-25 23:51:00,71.4,64.2,30.30,East,88,0.0,0.0,78,0.00,SCT,,0.00,WeatherDisplay:10.37,2013-08-26 03:51:00,
2013-08-25 23:52:00,71.4,64.2,30.30,East,88,0.0,0.0,78,0.00,SCT,,0.00,WeatherDisplay:10.37,2013-08-26 03:52:00,
2013-08-25 23:54:00,71.3,64.1,30.30,East,88,0.0,0.0,78,0.00,SCT,,0.00,WeatherDisplay:10.37,2013-08-26 03:54:00,
2013-08-25 23:55:00,71.3,64.1,30.30,East,87,0.0,0.0,78,0.00,SCT,,0.00,WeatherDisplay:10.37,2013-08-26 03:55:00,
2013-08-25 23:56:00,71.4,64.2,30.29,East,88,0.0,0.0,78,0.00,SCT,,0.00,WeatherDisplay:10.37,2013-08-26 03:56:00,
2013-08-25 23:57:00,71.4,64.2,30.30,East,88,0.0,0.0,78,0.00,SCT,,0.00,WeatherDisplay:10.37,2013-08-26 03:57:00,
2013-08-25 23:59:00,71.4,64.2,30.30,East,88,0.0,0.0,78,0.00,SCT,,0.00,WeatherDisplay:10.37,2013-08-26 03:59:00,